| time (UTC) | temp F | wind direction | speed MPH | gust MPH | rain 1hr in | rain 24hr in | rain mn in | humidity % | barometer mb |
| 20260503033301 | 44 | 190 | 3.0 | 0.0 | 0.00 | 0.00 | 0.00 | 83 | 1014.8 |
| 20260503033202 | 44 | 190 | 3.0 | 0.0 | 0.00 | 0.00 | 0.00 | 83 | 1014.8 |
| 20260503033101 | 44 | 190 | 3.0 | 0.0 | 0.00 | 0.00 | 0.00 | 83 | 1014.8 |
| 20260503033002 | 43 | 217 | 0.0 | 0.0 | 0.00 | 0.00 | 0.00 | 82 | 1014.8 |
| 20260503032901 | 43 | 217 | 0.0 | 0.0 | 0.00 | 0.00 | 0.00 | 82 | 1014.8 |
| 20260503032802 | 43 | 217 | 0.0 | 0.0 | 0.00 | 0.00 | 0.00 | 82 | 1014.8 |
| 20260503032701 | 43 | 217 | 0.0 | 0.0 | 0.00 | 0.00 | 0.00 | 82 | 1014.8 |
| 20260503032602 | 43 | 210 | 3.0 | 0.0 | 0.00 | 0.00 | 0.00 | 83 | 1014.8 |
| 20260503032502 | 43 | 210 | 3.0 | 0.0 | 0.00 | 0.00 | 0.00 | 83 | 1014.8 |
| 20260503032401 | 43 | 210 | 3.0 | 0.0 | 0.00 | 0.00 | 0.00 | 83 | 1014.8 |
| 20260503032304 | 43 | 200 | 0.0 | 0.0 | 0.00 | 0.00 | 0.00 | 83 | 1014.8 |
| 20260503032201 | 43 | 200 | 0.0 | 0.0 | 0.00 | 0.00 | 0.00 | 83 | 1014.8 |
| 20260503032102 | 43 | 200 | 0.0 | 0.0 | 0.00 | 0.00 | 0.00 | 83 | 1014.8 |
| 20260503032002 | 43 | 200 | 0.0 | 0.0 | 0.00 | 0.00 | 0.00 | 83 | 1014.8 |
| 20260503031902 | 43 | 200 | 0.0 | 0.0 | 0.00 | 0.00 | 0.00 | 83 | 1014.8 |
| 20260503031802 | 43 | 197 | 0.0 | 0.0 | 0.00 | 0.00 | 0.00 | 83 | 1014.7 |
| 20260503031701 | 43 | 197 | 0.0 | 0.0 | 0.00 | 0.00 | 0.00 | 83 | 1014.8 |
| 20260503031602 | 43 | 215 | 3.0 | 0.0 | 0.00 | 0.00 | 0.00 | 83 | 1014.7 |
| 20260503031501 | 43 | 215 | 3.0 | 0.0 | 0.00 | 0.00 | 0.00 | 83 | 1014.7 |
| 20260503031402 | 43 | 215 | 3.0 | 0.0 | 0.00 | 0.00 | 0.00 | 83 | 1014.7 |
| 20260503031301 | 43 | 215 | 0.0 | 0.0 | 0.00 | 0.00 | 0.00 | 83 | 1014.8 |
| 20260503031202 | 43 | 215 | 0.0 | 0.0 | 0.00 | 0.00 | 0.00 | 83 | 1014.8 |
| 20260503031102 | 43 | 215 | 0.0 | 0.0 | 0.00 | 0.00 | 0.00 | 83 | 1014.8 |
| 20260503031001 | 43 | 215 | 0.0 | 0.0 | 0.00 | 0.00 | 0.00 | 83 | 1014.8 |
| 20260503030902 | 43 | 215 | 0.0 | 0.0 | 0.00 | 0.00 | 0.00 | 83 | 1014.8 |
| 20260503030801 | 43 | 215 | 0.0 | 0.0 | 0.00 | 0.00 | 0.00 | 83 | 1014.8 |
| 20260503030702 | 43 | 215 | 0.0 | 0.0 | 0.00 | 0.00 | 0.00 | 83 | 1014.8 |
| 20260503030601 | 43 | 220 | 0.0 | 0.0 | 0.00 | 0.00 | 0.00 | 83 | 1014.8 |
| 20260503030502 | 43 | 220 | 0.0 | 0.0 | 0.00 | 0.00 | 0.00 | 83 | 1014.8 |
| 20260503030402 | 43 | 220 | 0.0 | 0.0 | 0.00 | 0.00 | 0.00 | 83 | 1014.8 |
| 20260503030301 | 43 | 220 | 0.0 | 0.0 | 0.00 | 0.00 | 0.00 | 83 | 1014.8 |
| 20260503030202 | 43 | 220 | 0.0 | 0.0 | 0.00 | 0.00 | 0.00 | 83 | 1014.8 |
| 20260503030002 | 43 | 210 | 0.0 | 0.0 | 0.00 | 0.00 | 0.00 | 82 | 1014.9 |
| 20260503025901 | 43 | 210 | 0.0 | 0.0 | 0.00 | 0.00 | 0.00 | 82 | 1014.8 |
| 20260503025802 | 43 | 220 | 0.0 | 0.0 | 0.00 | 0.00 | 0.00 | 82 | 1014.9 |
| 20260503025702 | 43 | 220 | 0.0 | 0.0 | 0.00 | 0.00 | 0.00 | 82 | 1014.9 |
| 20260503025601 | 43 | 220 | 0.0 | 0.0 | 0.00 | 0.00 | 0.00 | 82 | 1014.9 |
| 20260503025502 | 43 | 217 | 0.0 | 0.0 | 0.00 | 0.00 | 0.00 | 82 | 1014.9 |
| 20260503025401 | 43 | 217 | 0.0 | 0.0 | 0.00 | 0.00 | 0.00 | 82 | 1014.9 |
| 20260503025304 | 43 | 215 | 0.0 | 0.0 | 0.00 | 0.00 | 0.00 | 82 | 1014.9 |
| 20260503025202 | 43 | 215 | 0.0 | 0.0 | 0.00 | 0.00 | 0.00 | 82 | 1014.9 |
| 20260503025101 | 43 | 215 | 0.0 | 0.0 | 0.00 | 0.00 | 0.00 | 82 | 1014.9 |
| 20260503025002 | 43 | 215 | 0.0 | 0.0 | 0.00 | 0.00 | 0.00 | 82 | 1014.9 |
| 20260503024901 | 43 | 215 | 0.0 | 0.0 | 0.00 | 0.00 | 0.00 | 82 | 1014.9 |
| 20260503024802 | 44 | 205 | 0.0 | 0.0 | 0.00 | 0.00 | 0.00 | 83 | 1014.9 |
| 20260503024702 | 44 | 205 | 0.0 | 0.0 | 0.00 | 0.00 | 0.00 | 83 | 1014.9 |
| 20260503024602 | 44 | 205 | 0.0 | 0.0 | 0.00 | 0.00 | 0.00 | 83 | 1015.1 |
| 20260503024502 | 44 | 205 | 0.0 | 0.0 | 0.00 | 0.00 | 0.00 | 83 | 1014.9 |
| 20260503024402 | 44 | 205 | 0.0 | 0.0 | 0.00 | 0.00 | 0.00 | 83 | 1014.9 |
| 20260503024302 | 43 | 200 | 0.0 | 0.0 | 0.00 | 0.00 | 0.00 | 83 | 1015.1 |
| 20260503024201 | 43 | 200 | 0.0 | 0.0 | 0.00 | 0.00 | 0.00 | 83 | 1015.1 |
| 20260503024102 | 43 | 200 | 0.0 | 0.0 | 0.00 | 0.00 | 0.00 | 83 | 1015.1 |
| 20260503024001 | 43 | 207 | 0.0 | 0.0 | 0.00 | 0.00 | 0.00 | 83 | 1015.1 |
| 20260503023902 | 43 | 207 | 0.0 | 0.0 | 0.00 | 0.00 | 0.00 | 83 | 1015.1 |
| 20260503023801 | 43 | 207 | 0.0 | 0.0 | 0.00 | 0.00 | 0.00 | 83 | 1015.1 |
| 20260503023701 | 43 | 205 | 0.0 | 0.0 | 0.00 | 0.00 | 0.00 | 82 | 1015.1 |
| 20260503023602 | 43 | 205 | 0.0 | 0.0 | 0.00 | 0.00 | 0.00 | 82 | 1015.1 |
| 20260503023501 | 43 | 205 | 0.0 | 0.0 | 0.00 | 0.00 | 0.00 | 82 | 1015.1 |
| 20260503023402 | 43 | 205 | 0.0 | 0.0 | 0.00 | 0.00 | 0.00 | 82 | 1015.1 |
| 20260503023301 | 43 | 205 | 0.0 | 0.0 | 0.00 | 0.00 | 0.00 | 82 | 1015.1 |
| 20260503023202 | 43 | 207 | 0.0 | 0.0 | 0.00 | 0.00 | 0.00 | 83 | 1015.1 |
| 20260503023101 | 43 | 207 | 0.0 | 0.0 | 0.00 | 0.00 | 0.00 | 83 | 1015.1 |
| 20260503023002 | 43 | 207 | 0.0 | 0.0 | 0.00 | 0.00 | 0.00 | 83 | 1015.1 |
| 20260503022902 | 43 | 207 | 0.0 | 0.0 | 0.00 | 0.00 | 0.00 | 83 | 1015.1 |
| 20260503022801 | 43 | 207 | 0.0 | 0.0 | 0.00 | 0.00 | 0.00 | 83 | 1015.1 |
| 20260503022702 | 44 | 210 | 0.0 | 0.0 | 0.00 | 0.00 | 0.00 | 83 | 1015.1 |
| 20260503022601 | 44 | 210 | 0.0 | 0.0 | 0.00 | 0.00 | 0.00 | 83 | 1015.1 |
| 20260503022502 | 44 | 195 | 0.0 | 0.0 | 0.00 | 0.00 | 0.00 | 83 | 1015.1 |
| 20260503022401 | 44 | 195 | 0.0 | 0.0 | 0.00 | 0.00 | 0.00 | 83 | 1015.2 |
| 20260503022304 | 44 | 195 | 0.0 | 0.0 | 0.00 | 0.00 | 0.00 | 83 | 1015.1 |
| 20260503022202 | 44 | 187 | 0.0 | 0.0 | 0.00 | 0.00 | 0.00 | 83 | 1015.2 |
| 20260503022102 | 44 | 187 | 0.0 | 0.0 | 0.00 | 0.00 | 0.00 | 83 | 1015.2 |
| 20260503022002 | 44 | 187 | 0.0 | 0.0 | 0.00 | 0.00 | 0.00 | 83 | 1015.2 |
| 20260503021901 | 44 | 215 | 0.0 | 0.0 | 0.00 | 0.00 | 0.00 | 82 | 1015.2 |
| 20260503021802 | 44 | 215 | 0.0 | 0.0 | 0.00 | 0.00 | 0.00 | 82 | 1015.2 |
| 20260503021701 | 44 | 215 | 0.0 | 0.0 | 0.00 | 0.00 | 0.00 | 83 | 1015.2 |
| 20260503021602 | 44 | 215 | 0.0 | 0.0 | 0.00 | 0.00 | 0.00 | 83 | 1015.2 |
| 20260503021501 | 44 | 215 | 0.0 | 0.0 | 0.00 | 0.00 | 0.00 | 83 | 1015.2 |
| 20260503021402 | 44 | 215 | 0.0 | 0.0 | 0.00 | 0.00 | 0.00 | 83 | 1015.2 |
| 20260503021302 | 44 | 215 | 0.0 | 0.0 | 0.00 | 0.00 | 0.00 | 83 | 1015.3 |
| 20260503021201 | 44 | 215 | 0.0 | 0.0 | 0.00 | 0.00 | 0.00 | 83 | 1015.3 |
| 20260503021102 | 44 | 220 | 0.0 | 0.0 | 0.00 | 0.00 | 0.00 | 83 | 1015.3 |
| 20260503021001 | 44 | 220 | 0.0 | 0.0 | 0.00 | 0.00 | 0.00 | 83 | 1015.3 |
| 20260503020902 | 44 | 220 | 0.0 | 0.0 | 0.00 | 0.00 | 0.00 | 83 | 1015.3 |
| 20260503020801 | 44 | 220 | 0.0 | 0.0 | 0.00 | 0.00 | 0.00 | 83 | 1015.3 |
| 20260503020702 | 44 | 202 | 0.0 | 0.0 | 0.00 | 0.00 | 0.00 | 83 | 1015.3 |
| 20260503020602 | 44 | 202 | 0.0 | 0.0 | 0.00 | 0.00 | 0.00 | 83 | 1015.3 |
| 20260503020502 | 44 | 202 | 0.0 | 0.0 | 0.00 | 0.00 | 0.00 | 83 | 1015.4 |
| 20260503020401 | 44 | 200 | 0.0 | 0.0 | 0.00 | 0.00 | 0.00 | 83 | 1015.3 |
| 20260503020302 | 44 | 200 | 0.0 | 0.0 | 0.00 | 0.00 | 0.00 | 83 | 1015.4 |
| 20260503020201 | 44 | 200 | 0.0 | 0.0 | 0.00 | 0.00 | 0.00 | 83 | 1015.4 |
| 20260503020001 | 44 | 215 | 0.0 | 0.0 | 0.00 | 0.00 | 0.00 | 83 | 1015.3 |
| 20260503015902 | 44 | 220 | 0.0 | 0.0 | 0.00 | 0.00 | 0.00 | 83 | 1015.4 |
| 20260503015802 | 44 | 220 | 0.0 | 0.0 | 0.00 | 0.00 | 0.00 | 83 | 1015.4 |
| 20260503015701 | 44 | 227 | 0.0 | 0.0 | 0.00 | 0.00 | 0.00 | 82 | 1015.4 |
| 20260503015602 | 44 | 227 | 0.0 | 0.0 | 0.00 | 0.00 | 0.00 | 82 | 1015.4 |
| 20260503015501 | 44 | 227 | 0.0 | 0.0 | 0.00 | 0.00 | 0.00 | 82 | 1015.4 |
| 20260503015402 | 44 | 215 | 0.0 | 0.0 | 0.00 | 0.00 | 0.00 | 82 | 1015.4 |
| 20260503015302 | 44 | 215 | 0.0 | 0.0 | 0.00 | 0.00 | 0.00 | 82 | 1015.4 |
| 20260503015202 | 44 | 217 | 0.0 | 0.0 | 0.00 | 0.00 | 0.00 | 81 | 1015.4 |
| 20260503015102 | 44 | 217 | 0.0 | 0.0 | 0.00 | 0.00 | 0.00 | 81 | 1015.4 |
| 20260503015001 | 44 | 217 | 0.0 | 0.0 | 0.00 | 0.00 | 0.00 | 81 | 1015.4 |
| 20260503014902 | 44 | 217 | 0.0 | 0.0 | 0.00 | 0.00 | 0.00 | 81 | 1015.4 |
| 20260503014801 | 44 | 217 | 0.0 | 0.0 | 0.00 | 0.00 | 0.00 | 81 | 1015.4 |
| 20260503014702 | 45 | 200 | 0.0 | 0.0 | 0.00 | 0.00 | 0.00 | 81 | 1015.5 |
| 20260503014602 | 45 | 200 | 0.0 | 0.0 | 0.00 | 0.00 | 0.00 | 81 | 1015.5 |
| 20260503014502 | 45 | 200 | 0.0 | 0.0 | 0.00 | 0.00 | 0.00 | 81 | 1015.5 |
| 20260503014402 | 45 | 195 | 0.0 | 0.0 | 0.00 | 0.00 | 0.00 | 81 | 1015.5 |
| 20260503014301 | 45 | 195 | 0.0 | 0.0 | 0.00 | 0.00 | 0.00 | 81 | 1015.5 |
| 20260503014202 | 45 | 195 | 0.0 | 0.0 | 0.00 | 0.00 | 0.00 | 81 | 1015.5 |
| 20260503014101 | 45 | 195 | 0.0 | 0.0 | 0.00 | 0.00 | 0.00 | 81 | 1015.5 |
| 20260503014002 | 45 | 195 | 0.0 | 0.0 | 0.00 | 0.00 | 0.00 | 81 | 1015.5 |
| 20260503013901 | 45 | 190 | 0.0 | 0.0 | 0.00 | 0.00 | 0.00 | 81 | 1015.5 |
| 20260503013802 | 45 | 190 | 0.0 | 0.0 | 0.00 | 0.00 | 0.00 | 81 | 1015.5 |
| 20260503013701 | 45 | 202 | 0.0 | 0.0 | 0.00 | 0.00 | 0.00 | 81 | 1015.5 |
| 20260503013602 | 45 | 202 | 0.0 | 0.0 | 0.00 | 0.00 | 0.00 | 81 | 1015.6 |
| 20260503013502 | 45 | 202 | 0.0 | 0.0 | 0.00 | 0.00 | 0.00 | 81 | 1015.5 |
| 20260503013402 | 45 | 197 | 0.0 | 0.0 | 0.00 | 0.00 | 0.00 | 81 | 1015.6 |
| 20260503013302 | 45 | 197 | 0.0 | 0.0 | 0.00 | 0.00 | 0.00 | 81 | 1015.6 |
| 20260503013202 | 45 | 207 | 0.0 | 0.0 | 0.00 | 0.00 | 0.00 | 81 | 1015.6 |
| 20260503013102 | 45 | 207 | 0.0 | 0.0 | 0.00 | 0.00 | 0.00 | 81 | 1015.6 |
| 20260503013002 | 45 | 207 | 0.0 | 0.0 | 0.00 | 0.00 | 0.00 | 81 | 1015.6 |
| 20260503012802 | 45 | 185 | 0.0 | 0.0 | 0.00 | 0.00 | 0.00 | 82 | 1015.7 |
| 20260503012701 | 45 | 185 | 0.0 | 0.0 | 0.00 | 0.00 | 0.00 | 82 | 1015.7 |
| 20260503012602 | 45 | 190 | 3.0 | 0.0 | 0.00 | 0.00 | 0.00 | 82 | 1015.7 |
| 20260503012501 | 45 | 190 | 3.0 | 0.0 | 0.00 | 0.00 | 0.00 | 82 | 1015.7 |
| 20260503012402 | 46 | 195 | 0.0 | 0.0 | 0.00 | 0.00 | 0.00 | 82 | 1015.7 |
| 20260503012302 | 46 | 195 | 0.0 | 0.0 | 0.00 | 0.00 | 0.00 | 82 | 1015.7 |
| 20260503012201 | 46 | 195 | 0.0 | 0.0 | 0.00 | 0.00 | 0.00 | 82 | 1015.7 |
| 20260503012102 | 46 | 210 | 3.0 | 0.0 | 0.00 | 0.00 | 0.00 | 82 | 1015.7 |
| 20260503012001 | 46 | 210 | 3.0 | 0.0 | 0.00 | 0.00 | 0.00 | 82 | 1015.7 |
| 20260503011902 | 46 | 232 | 3.0 | 0.0 | 0.00 | 0.00 | 0.00 | 82 | 1015.7 |
| 20260503011801 | 46 | 232 | 3.0 | 0.0 | 0.00 | 0.00 | 0.00 | 82 | 1015.8 |
| 20260503011702 | 46 | 232 | 3.0 | 0.0 | 0.00 | 0.00 | 0.00 | 82 | 1015.8 |
| 20260503011601 | 46 | 227 | 3.0 | 0.0 | 0.00 | 0.00 | 0.00 | 82 | 1015.8 |
| 20260503011502 | 46 | 227 | 3.0 | 0.0 | 0.00 | 0.00 | 0.00 | 82 | 1015.8 |
| 20260503011402 | 46 | 220 | 0.0 | 0.0 | 0.00 | 0.00 | 0.00 | 82 | 1015.8 |
| 20260503011301 | 46 | 220 | 0.0 | 0.0 | 0.00 | 0.00 | 0.00 | 82 | 1015.8 |
| 20260503011202 | 46 | 220 | 0.0 | 0.0 | 0.00 | 0.00 | 0.00 | 82 | 1015.8 |
| 20260503011101 | 46 | 195 | 0.0 | 0.0 | 0.00 | 0.00 | 0.00 | 82 | 1015.9 |
| 20260503011002 | 46 | 195 | 0.0 | 0.0 | 0.00 | 0.00 | 0.00 | 82 | 1015.8 |
| 20260503010901 | 46 | 227 | 0.0 | 0.0 | 0.00 | 0.00 | 0.00 | 82 | 1015.8 |
| 20260503010802 | 46 | 227 | 0.0 | 0.0 | 0.00 | 0.00 | 0.00 | 82 | 1015.8 |
| 20260503010702 | 46 | 227 | 0.0 | 0.0 | 0.00 | 0.00 | 0.00 | 82 | 1015.8 |
| 20260503010601 | 46 | 197 | 0.0 | 0.0 | 0.00 | 0.00 | 0.00 | 81 | 1015.8 |
| 20260503010501 | 46 | 197 | 0.0 | 0.0 | 0.00 | 0.00 | 0.00 | 81 | 1015.8 |
| 20260503010402 | 46 | 197 | 0.0 | 0.0 | 0.00 | 0.00 | 0.00 | 81 | 1015.9 |
| 20260503010301 | 46 | 195 | 0.0 | 0.0 | 0.00 | 0.00 | 0.00 | 82 | 1015.9 |
| 20260503010202 | 46 | 195 | 0.0 | 0.0 | 0.00 | 0.00 | 0.00 | 82 | 1015.9 |
| 20260503010002 | 46 | 175 | 0.0 | 0.0 | 0.00 | 0.00 | 0.00 | 82 | 1015.8 |
| 20260503005902 | 46 | 175 | 0.0 | 0.0 | 0.00 | 0.00 | 0.00 | 82 | 1015.9 |
| 20260503005801 | 47 | 205 | 5.0 | 0.0 | 0.00 | 0.00 | 0.00 | 83 | 1016.0 |
| 20260503005702 | 47 | 205 | 5.0 | 0.0 | 0.00 | 0.00 | 0.00 | 83 | 1015.9 |
| 20260503005601 | 46 | 235 | 3.0 | 0.0 | 0.00 | 0.00 | 0.00 | 83 | 1015.9 |
| 20260503005502 | 46 | 235 | 3.0 | 0.0 | 0.00 | 0.00 | 0.00 | 83 | 1015.9 |
| 20260503005401 | 46 | 235 | 3.0 | 0.0 | 0.00 | 0.00 | 0.00 | 83 | 1015.9 |
| 20260503005304 | 46 | 237 | 4.0 | 0.0 | 0.00 | 0.00 | 0.00 | 82 | 1016.0 |
| 20260503005202 | 46 | 237 | 4.0 | 0.0 | 0.00 | 0.00 | 0.00 | 82 | 1016.0 |
| 20260503005101 | 46 | 237 | 4.0 | 0.0 | 0.00 | 0.00 | 0.00 | 82 | 1015.9 |
| 20260503005002 | 46 | 220 | 0.0 | 0.0 | 0.00 | 0.00 | 0.00 | 81 | 1016.0 |
| 20260503004901 | 46 | 220 | 0.0 | 0.0 | 0.00 | 0.00 | 0.00 | 81 | 1016.0 |
| 20260503004802 | 46 | 220 | 0.0 | 0.0 | 0.00 | 0.00 | 0.00 | 81 | 1016.0 |
| 20260503004702 | 46 | 220 | 0.0 | 0.0 | 0.00 | 0.00 | 0.00 | 81 | 1016.1 |
| 20260503004602 | 47 | 222 | 0.0 | 0.0 | 0.00 | 0.00 | 0.00 | 80 | 1016.1 |
| 20260503004502 | 47 | 222 | 0.0 | 0.0 | 0.00 | 0.00 | 0.00 | 80 | 1016.1 |
| 20260503004401 | 47 | 222 | 0.0 | 0.0 | 0.00 | 0.00 | 0.00 | 80 | 1016.1 |
| 20260503004302 | 47 | 215 | 0.0 | 0.0 | 0.00 | 0.00 | 0.00 | 80 | 1016.1 |
| 20260503004201 | 47 | 215 | 0.0 | 0.0 | 0.00 | 0.00 | 0.00 | 80 | 1016.1 |
| 20260503004102 | 47 | 202 | 0.0 | 0.0 | 0.00 | 0.00 | 0.00 | 81 | 1016.1 |
| 20260503004001 | 47 | 202 | 0.0 | 0.0 | 0.00 | 0.00 | 0.00 | 81 | 1016.1 |
| 20260503003902 | 47 | 202 | 0.0 | 0.0 | 0.00 | 0.00 | 0.00 | 81 | 1016.1 |
| 20260503003802 | 47 | 190 | 0.0 | 0.0 | 0.00 | 0.00 | 0.00 | 81 | 1016.1 |
| 20260503003702 | 47 | 190 | 0.0 | 0.0 | 0.00 | 0.00 | 0.00 | 81 | 1016.1 |
| 20260503003602 | 47 | 235 | 0.0 | 0.0 | 0.00 | 0.00 | 0.00 | 81 | 1016.1 |
| 20260503003501 | 47 | 235 | 0.0 | 0.0 | 0.00 | 0.00 | 0.00 | 81 | 1016.1 |
| 20260503003402 | 47 | 235 | 0.0 | 0.0 | 0.00 | 0.00 | 0.00 | 81 | 1016.1 |
| 20260503003301 | 47 | 182 | 0.0 | 0.0 | 0.00 | 0.00 | 0.00 | 80 | 1016.1 |
| 20260503003202 | 47 | 182 | 0.0 | 0.0 | 0.00 | 0.00 | 0.00 | 80 | 1016.1 |
| 20260503003101 | 47 | 182 | 0.0 | 0.0 | 0.00 | 0.00 | 0.00 | 80 | 1016.0 |
| 20260503003002 | 47 | 225 | 0.0 | 0.0 | 0.00 | 0.00 | 0.00 | 79 | 1016.1 |
| 20260503002902 | 47 | 225 | 0.0 | 0.0 | 0.00 | 0.00 | 0.00 | 79 | 1016.1 |
| 20260503002801 | 47 | 237 | 0.0 | 0.0 | 0.00 | 0.00 | 0.00 | 79 | 1016.1 |
| 20260503002702 | 47 | 237 | 0.0 | 0.0 | 0.00 | 0.00 | 0.00 | 79 | 1016.1 |
| 20260503002601 | 47 | 197 | 0.0 | 0.0 | 0.00 | 0.00 | 0.00 | 79 | 1016.1 |
| 20260503002502 | 47 | 197 | 0.0 | 0.0 | 0.00 | 0.00 | 0.00 | 79 | 1016.1 |
| 20260503002401 | 47 | 197 | 0.0 | 0.0 | 0.00 | 0.00 | 0.00 | 79 | 1016.1 |
| 20260503002304 | 47 | 207 | 0.0 | 0.0 | 0.00 | 0.00 | 0.00 | 79 | 1016.2 |
| 20260503002201 | 47 | 207 | 0.0 | 0.0 | 0.00 | 0.00 | 0.00 | 79 | 1016.2 |
| 20260503002102 | 47 | 207 | 0.0 | 0.0 | 0.00 | 0.00 | 0.00 | 79 | 1016.1 |
| 20260503002002 | 47 | 207 | 0.0 | 0.0 | 0.00 | 0.00 | 0.00 | 79 | 1016.2 |
| 20260503001901 | 47 | 207 | 0.0 | 0.0 | 0.00 | 0.00 | 0.00 | 79 | 1016.1 |
| 20260503001802 | 47 | 207 | 0.0 | 0.0 | 0.00 | 0.00 | 0.00 | 79 | 1016.1 |
| 20260503001701 | 47 | 207 | 0.0 | 0.0 | 0.00 | 0.00 | 0.00 | 79 | 1016.1 |
| 20260503001602 | 47 | 207 | 0.0 | 0.0 | 0.00 | 0.00 | 0.00 | 80 | 1016.1 |
| 20260503001501 | 47 | 207 | 0.0 | 0.0 | 0.00 | 0.00 | 0.00 | 80 | 1016.1 |
| 20260503001402 | 47 | 207 | 0.0 | 0.0 | 0.00 | 0.00 | 0.00 | 80 | 1016.2 |
| 20260503001302 | 47 | 210 | 0.0 | 0.0 | 0.00 | 0.00 | 0.00 | 80 | 1016.1 |
| 20260503001201 | 47 | 210 | 0.0 | 0.0 | 0.00 | 0.00 | 0.00 | 80 | 1016.2 |
| 20260503001102 | 46 | 205 | 0.0 | 0.0 | 0.00 | 0.00 | 0.00 | 80 | 1016.2 |
| 20260503001001 | 46 | 205 | 0.0 | 0.0 | 0.00 | 0.00 | 0.00 | 80 | 1016.2 |
| 20260503000902 | 46 | 205 | 0.0 | 0.0 | 0.00 | 0.00 | 0.00 | 80 | 1016.2 |
| 20260503000801 | 46 | 215 | 0.0 | 0.0 | 0.00 | 0.00 | 0.00 | 80 | 1016.2 |
| 20260503000702 | 46 | 215 | 0.0 | 0.0 | 0.00 | 0.00 | 0.00 | 80 | 1016.3 |
| 20260503000602 | 46 | 215 | 0.0 | 0.0 | 0.00 | 0.00 | 0.00 | 80 | 1016.2 |
| 20260503000502 | 46 | 212 | 0.0 | 0.0 | 0.00 | 0.00 | 0.00 | 80 | 1016.3 |
| 20260503000402 | 46 | 212 | 0.0 | 0.0 | 0.00 | 0.00 | 0.00 | 80 | 1016.3 |
| 20260503000301 | 46 | 220 | 3.0 | 0.0 | 0.00 | 0.00 | 0.00 | 80 | 1016.3 |
| 20260503000203 | 46 | 220 | 3.0 | 0.0 | 0.00 | 0.00 | 0.00 | 80 | 1016.3 |
| 20260503000002 | 47 | 215 | 0.0 | 0.0 | 0.00 | 0.00 | 0.00 | 79 | 1016.3 |
| 20260502235902 | 47 | 215 | 0.0 | 0.0 | 0.00 | 0.00 | 0.00 | 79 | 1016.3 |
| 20260502235802 | 47 | 215 | 0.0 | 0.0 | 0.00 | 0.00 | 0.00 | 79 | 1016.3 |
| 20260502235702 | 47 | 212 | 3.0 | 0.0 | 0.00 | 0.00 | 0.00 | 78 | 1016.3 |
| 20260502235601 | 47 | 212 | 3.0 | 0.0 | 0.00 | 0.00 | 0.00 | 78 | 1016.3 |
| 20260502235502 | 47 | 212 | 3.0 | 0.0 | 0.00 | 0.00 | 0.00 | 78 | 1016.3 |
| 20260502235401 | 47 | 212 | 3.0 | 0.0 | 0.00 | 0.00 | 0.00 | 78 | 1016.4 |
| 20260502235304 | 47 | 215 | 0.0 | 0.0 | 0.00 | 0.00 | 0.00 | 78 | 1016.4 |
| 20260502235201 | 47 | 215 | 0.0 | 0.0 | 0.00 | 0.00 | 0.00 | 78 | 1016.4 |
| 20260502235101 | 47 | 215 | 0.0 | 0.0 | 0.00 | 0.00 | 0.00 | 78 | 1016.3 |
| 20260502235002 | 47 | 215 | 0.0 | 0.0 | 0.00 | 0.00 | 0.00 | 78 | 1016.3 |
| 20260502234901 | 47 | 215 | 0.0 | 0.0 | 0.00 | 0.00 | 0.00 | 78 | 1016.4 |
| 20260502234802 | 47 | 212 | 3.0 | 0.0 | 0.00 | 0.00 | 0.00 | 78 | 1016.4 |
| 20260502234701 | 47 | 212 | 3.0 | 0.0 | 0.00 | 0.00 | 0.00 | 78 | 1016.4 |
| 20260502234602 | 47 | 212 | 3.0 | 0.0 | 0.00 | 0.00 | 0.00 | 78 | 1016.4 |
| 20260502234501 | 47 | 217 | 0.0 | 0.0 | 0.00 | 0.00 | 0.00 | 78 | 1016.4 |
| 20260502234402 | 47 | 217 | 0.0 | 0.0 | 0.00 | 0.00 | 0.00 | 78 | 1016.4 |
| 20260502234302 | 47 | 225 | 0.0 | 0.0 | 0.00 | 0.00 | 0.00 | 78 | 1016.4 |
| 20260502234201 | 47 | 225 | 0.0 | 0.0 | 0.00 | 0.00 | 0.00 | 78 | 1016.4 |
| 20260502234102 | 47 | 225 | 0.0 | 0.0 | 0.00 | 0.00 | 0.00 | 78 | 1016.4 |
| 20260502234002 | 48 | 217 | 3.0 | 0.0 | 0.00 | 0.00 | 0.00 | 76 | 1016.4 |
| 20260502233902 | 48 | 217 | 3.0 | 0.0 | 0.00 | 0.00 | 0.00 | 76 | 1016.3 |
| 20260502233802 | 48 | 217 | 3.0 | 0.0 | 0.00 | 0.00 | 0.00 | 76 | 1016.4 |
| 20260502233702 | 48 | 217 | 3.0 | 0.0 | 0.00 | 0.00 | 0.00 | 76 | 1016.4 |
| 20260502233602 | 48 | 217 | 3.0 | 0.0 | 0.00 | 0.00 | 0.00 | 76 | 1016.4 |
| 20260502233501 | 48 | 217 | 3.0 | 0.0 | 0.00 | 0.00 | 0.00 | 76 | 1016.4 |
| 20260502233402 | 48 | 215 | 0.0 | 0.0 | 0.00 | 0.00 | 0.00 | 76 | 1016.4 |
| 20260502233301 | 48 | 215 | 0.0 | 0.0 | 0.00 | 0.00 | 0.00 | 76 | 1016.4 |
| 20260502233202 | 48 | 205 | 0.0 | 0.0 | 0.00 | 0.00 | 0.00 | 76 | 1016.4 |
| 20260502233101 | 48 | 205 | 0.0 | 0.0 | 0.00 | 0.00 | 0.00 | 76 | 1016.4 |
| 20260502233002 | 48 | 217 | 3.0 | 0.0 | 0.00 | 0.00 | 0.00 | 76 | 1016.4 |
| 20260502232902 | 48 | 217 | 3.0 | 0.0 | 0.00 | 0.00 | 0.00 | 76 | 1016.4 |
| 20260502232801 | 48 | 217 | 3.0 | 0.0 | 0.00 | 0.00 | 0.00 | 76 | 1016.4 |
| 20260502232702 | 48 | 215 | 4.0 | 0.0 | 0.00 | 0.00 | 0.00 | 76 | 1016.4 |
| 20260502232601 | 48 | 215 | 4.0 | 0.0 | 0.00 | 0.00 | 0.00 | 76 | 1016.4 |
| 20260502232502 | 48 | 212 | 0.0 | 0.0 | 0.00 | 0.00 | 0.00 | 75 | 1016.4 |
| 20260502232401 | 48 | 212 | 0.0 | 0.0 | 0.00 | 0.00 | 0.00 | 75 | 1016.4 |
| 20260502232304 | 48 | 212 | 0.0 | 0.0 | 0.00 | 0.00 | 0.00 | 75 | 1016.4 |
| 20260502232202 | 48 | 212 | 0.0 | 0.0 | 0.00 | 0.00 | 0.00 | 75 | 1016.3 |
| 20260502232101 | 48 | 212 | 0.0 | 0.0 | 0.00 | 0.00 | 0.00 | 75 | 1016.4 |
| 20260502232002 | 48 | 212 | 0.0 | 0.0 | 0.00 | 0.00 | 0.00 | 75 | 1016.4 |
| 20260502231901 | 48 | 220 | 0.0 | 0.0 | 0.00 | 0.00 | 0.00 | 76 | 1016.4 |
| 20260502231802 | 48 | 220 | 0.0 | 0.0 | 0.00 | 0.00 | 0.00 | 76 | 1016.4 |
| 20260502231701 | 48 | 222 | 0.0 | 0.0 | 0.00 | 0.00 | 0.00 | 75 | 1016.4 |
| 20260502231602 | 48 | 222 | 0.0 | 0.0 | 0.00 | 0.00 | 0.00 | 75 | 1016.4 |
| 20260502231502 | 48 | 222 | 0.0 | 0.0 | 0.00 | 0.00 | 0.00 | 75 | 1016.4 |
| 20260502231401 | 49 | 230 | 0.0 | 0.0 | 0.00 | 0.00 | 0.00 | 73 | 1016.4 |
| 20260502231302 | 49 | 230 | 0.0 | 0.0 | 0.00 | 0.00 | 0.00 | 73 | 1016.4 |
| 20260502231201 | 49 | 230 | 0.0 | 0.0 | 0.00 | 0.00 | 0.00 | 73 | 1016.4 |
| 20260502231102 | 49 | 220 | 0.0 | 0.0 | 0.00 | 0.00 | 0.00 | 73 | 1016.5 |
| 20260502231001 | 49 | 220 | 0.0 | 0.0 | 0.00 | 0.00 | 0.00 | 73 | 1016.4 |
| 20260502230902 | 49 | 225 | 0.0 | 0.0 | 0.00 | 0.00 | 0.00 | 73 | 1016.4 |
| 20260502230802 | 49 | 225 | 0.0 | 0.0 | 0.00 | 0.00 | 0.00 | 73 | 1016.5 |
| 20260502230701 | 50 | 210 | 0.0 | 0.0 | 0.00 | 0.00 | 0.00 | 72 | 1016.4 |
| 20260502230602 | 50 | 210 | 0.0 | 0.0 | 0.00 | 0.00 | 0.00 | 72 | 1016.5 |
| 20260502230501 | 50 | 210 | 0.0 | 0.0 | 0.00 | 0.00 | 0.00 | 72 | 1016.5 |
| 20260502230402 | 50 | 210 | 0.0 | 0.0 | 0.00 | 0.00 | 0.00 | 73 | 1016.5 |
| 20260502230301 | 50 | 210 | 0.0 | 0.0 | 0.00 | 0.00 | 0.00 | 73 | 1016.5 |
| 20260502230202 | 50 | 210 | 0.0 | 0.0 | 0.00 | 0.00 | 0.00 | 73 | 1016.5 |
| 20260502230002 | 50 | 210 | 0.0 | 0.0 | 0.00 | 0.00 | 0.00 | 73 | 1016.5 |
| 20260502225902 | 50 | 217 | 0.0 | 0.0 | 0.00 | 0.00 | 0.00 | 73 | 1016.5 |
| 20260502225802 | 50 | 217 | 0.0 | 0.0 | 0.00 | 0.00 | 0.00 | 73 | 1016.5 |
| 20260502225702 | 50 | 225 | 0.0 | 0.0 | 0.00 | 0.00 | 0.00 | 71 | 1016.5 |
| 20260502225601 | 50 | 225 | 0.0 | 0.0 | 0.00 | 0.00 | 0.00 | 71 | 1016.5 |
| 20260502225502 | 50 | 225 | 0.0 | 0.0 | 0.00 | 0.00 | 0.00 | 71 | 1016.5 |
| 20260502225401 | 51 | 220 | 0.0 | 0.0 | 0.00 | 0.00 | 0.00 | 71 | 1016.6 |
| 20260502225304 | 51 | 220 | 0.0 | 0.0 | 0.00 | 0.00 | 0.00 | 71 | 1016.5 |
| 20260502225201 | 51 | 222 | 4.0 | 0.0 | 0.00 | 0.00 | 0.00 | 70 | 1016.6 |
| 20260502225102 | 51 | 222 | 4.0 | 0.0 | 0.00 | 0.00 | 0.00 | 70 | 1016.6 |
| 20260502225002 | 51 | 222 | 4.0 | 0.0 | 0.00 | 0.00 | 0.00 | 70 | 1016.6 |
| 20260502224901 | 51 | 220 | 0.0 | 0.0 | 0.00 | 0.00 | 0.00 | 70 | 1016.6 |
| 20260502224802 | 51 | 220 | 0.0 | 0.0 | 0.00 | 0.00 | 0.00 | 70 | 1016.6 |
| 20260502224701 | 51 | 220 | 0.0 | 0.0 | 0.00 | 0.00 | 0.00 | 70 | 1016.6 |
| 20260502224602 | 52 | 222 | 0.0 | 0.0 | 0.00 | 0.00 | 0.00 | 70 | 1016.7 |
| 20260502224501 | 52 | 222 | 0.0 | 0.0 | 0.00 | 0.00 | 0.00 | 70 | 1016.7 |
| 20260502224402 | 53 | 217 | 0.0 | 0.0 | 0.00 | 0.00 | 0.00 | 68 | 1016.7 |
| 20260502224301 | 53 | 217 | 0.0 | 0.0 | 0.00 | 0.00 | 0.00 | 68 | 1016.7 |
| 20260502224202 | 53 | 217 | 0.0 | 0.0 | 0.00 | 0.00 | 0.00 | 68 | 1016.7 |
| 20260502224102 | 53 | 230 | 0.0 | 0.0 | 0.00 | 0.00 | 0.00 | 66 | 1016.6 |
| 20260502224001 | 53 | 230 | 0.0 | 0.0 | 0.00 | 0.00 | 0.00 | 66 | 1016.7 |
| 20260502223902 | 54 | 230 | 0.0 | 0.0 | 0.00 | 0.00 | 0.00 | 65 | 1016.7 |
| 20260502223801 | 54 | 230 | 0.0 | 0.0 | 0.00 | 0.00 | 0.00 | 65 | 1016.7 |
| 20260502223702 | 54 | 235 | 0.0 | 0.0 | 0.00 | 0.00 | 0.00 | 63 | 1016.7 |
| 20260502223601 | 54 | 235 | 0.0 | 0.0 | 0.00 | 0.00 | 0.00 | 63 | 1016.7 |
| 20260502223502 | 54 | 235 | 0.0 | 0.0 | 0.00 | 0.00 | 0.00 | 63 | 1016.7 |
| 20260502223402 | 55 | 235 | 0.0 | 0.0 | 0.00 | 0.00 | 0.00 | 60 | 1016.7 |
| 20260502223301 | 55 | 235 | 0.0 | 0.0 | 0.00 | 0.00 | 0.00 | 60 | 1016.7 |
| 20260502223202 | 55 | 235 | 0.0 | 0.0 | 0.00 | 0.00 | 0.00 | 58 | 1016.7 |
| 20260502223101 | 55 | 235 | 0.0 | 0.0 | 0.00 | 0.00 | 0.00 | 58 | 1016.7 |
| 20260502223002 | 55 | 235 | 0.0 | 0.0 | 0.00 | 0.00 | 0.00 | 58 | 1016.7 |
| 20260502222902 | 56 | 147 | 0.0 | 0.0 | 0.00 | 0.00 | 0.00 | 56 | 1016.7 |
| 20260502222802 | 56 | 147 | 0.0 | 0.0 | 0.00 | 0.00 | 0.00 | 56 | 1016.7 |
| 20260502222701 | 56 | 147 | 0.0 | 0.0 | 0.00 | 0.00 | 0.00 | 56 | 1016.6 |
| 20260502222602 | 56 | 265 | 0.0 | 0.0 | 0.00 | 0.00 | 0.00 | 56 | 1016.7 |
| 20260502222502 | 56 | 265 | 0.0 | 0.0 | 0.00 | 0.00 | 0.00 | 56 | 1016.7 |
| 20260502222401 | 57 | 100 | 0.0 | 0.0 | 0.00 | 0.00 | 0.00 | 53 | 1016.7 |
| 20260502222305 | 57 | 100 | 0.0 | 0.0 | 0.00 | 0.00 | 0.00 | 53 | 1016.7 |
| 20260502222201 | 57 | 100 | 0.0 | 0.0 | 0.00 | 0.00 | 0.00 | 53 | 1016.7 |
| 20260502222102 | 57 | 95 | 0.0 | 0.0 | 0.00 | 0.00 | 0.00 | 53 | 1016.7 |
| 20260502222001 | 57 | 95 | 0.0 | 0.0 | 0.00 | 0.00 | 0.00 | 53 | 1016.7 |
| 20260502221902 | 58 | 60 | 0.0 | 0.0 | 0.00 | 0.00 | 0.00 | 53 | 1016.7 |
| 20260502221802 | 58 | 60 | 0.0 | 0.0 | 0.00 | 0.00 | 0.00 | 53 | 1016.7 |
| 20260502221702 | 58 | 60 | 0.0 | 0.0 | 0.00 | 0.00 | 0.00 | 53 | 1016.7 |
| 20260502221601 | 58 | 75 | 0.0 | 0.0 | 0.00 | 0.00 | 0.00 | 51 | 1016.6 |
| 20260502221502 | 58 | 75 | 0.0 | 0.0 | 0.00 | 0.00 | 0.00 | 51 | 1016.7 |
| 20260502221402 | 58 | 75 | 0.0 | 0.0 | 0.00 | 0.00 | 0.00 | 51 | 1016.7 |
| 20260502221301 | 58 | 75 | 0.0 | 0.0 | 0.00 | 0.00 | 0.00 | 51 | 1016.7 |
| 20260502221202 | 58 | 75 | 0.0 | 0.0 | 0.00 | 0.00 | 0.00 | 51 | 1016.7 |
| 20260502221101 | 59 | 77 | 0.0 | 0.0 | 0.00 | 0.00 | 0.00 | 51 | 1016.7 |
| 20260502221002 | 59 | 77 | 0.0 | 0.0 | 0.00 | 0.00 | 0.00 | 51 | 1016.7 |
| 20260502220901 | 59 | 77 | 0.0 | 0.0 | 0.00 | 0.00 | 0.00 | 51 | 1016.7 |
| 20260502220802 | 59 | 77 | 0.0 | 0.0 | 0.00 | 0.00 | 0.00 | 51 | 1016.7 |
| 20260502220702 | 59 | 77 | 0.0 | 0.0 | 0.00 | 0.00 | 0.00 | 51 | 1016.7 |
| 20260502220601 | 59 | 57 | 5.0 | 0.0 | 0.00 | 0.00 | 0.00 | 51 | 1016.7 |
| 20260502220502 | 59 | 57 | 5.0 | 0.0 | 0.00 | 0.00 | 0.00 | 51 | 1016.7 |
| 20260502220401 | 59 | 57 | 5.0 | 0.0 | 0.00 | 0.00 | 0.00 | 51 | 1016.7 |
| 20260502220302 | 58 | 70 | 4.0 | 0.0 | 0.00 | 0.00 | 0.00 | 52 | 1016.7 |
| 20260502220201 | 58 | 70 | 4.0 | 0.0 | 0.00 | 0.00 | 0.00 | 52 | 1016.7 |
| 20260502220002 | 58 | 57 | 3.0 | 0.0 | 0.00 | 0.00 | 0.00 | 52 | 1016.7 |
| 20260502215902 | 58 | 57 | 3.0 | 0.0 | 0.00 | 0.00 | 0.00 | 52 | 1016.8 |
| 20260502215802 | 58 | 55 | 4.0 | 0.0 | 0.00 | 0.00 | 0.00 | 53 | 1016.7 |
| 20260502215701 | 58 | 55 | 4.0 | 0.0 | 0.00 | 0.00 | 0.00 | 53 | 1016.7 |
| 20260502215602 | 58 | 55 | 4.0 | 0.0 | 0.00 | 0.00 | 0.00 | 53 | 1016.8 |
| 20260502215501 | 57 | 65 | 3.0 | 0.0 | 0.00 | 0.00 | 0.00 | 55 | 1016.8 |
| 20260502215402 | 57 | 65 | 3.0 | 0.0 | 0.00 | 0.00 | 0.00 | 55 | 1016.8 |
| 20260502215304 | 56 | 60 | 4.0 | 0.0 | 0.00 | 0.00 | 0.00 | 57 | 1016.7 |
| 20260502215202 | 56 | 60 | 4.0 | 0.0 | 0.00 | 0.00 | 0.00 | 57 | 1016.8 |
| 20260502215102 | 56 | 60 | 4.0 | 0.0 | 0.00 | 0.00 | 0.00 | 57 | 1016.8 |
| 20260502215001 | 55 | 47 | 3.0 | 0.0 | 0.00 | 0.00 | 0.00 | 59 | 1016.8 |
| 20260502214902 | 55 | 47 | 3.0 | 0.0 | 0.00 | 0.00 | 0.00 | 59 | 1016.8 |
| 20260502214801 | 54 | 130 | 0.0 | 0.0 | 0.00 | 0.00 | 0.00 | 61 | 1016.8 |
| 20260502214702 | 54 | 130 | 0.0 | 0.0 | 0.00 | 0.00 | 0.00 | 61 | 1017.0 |
| 20260502214602 | 54 | 130 | 0.0 | 0.0 | 0.00 | 0.00 | 0.00 | 61 | 1016.8 |
| 20260502214502 | 55 | 197 | 0.0 | 0.0 | 0.00 | 0.00 | 0.00 | 61 | 1016.8 |
| 20260502214402 | 55 | 197 | 0.0 | 0.0 | 0.00 | 0.00 | 0.00 | 61 | 1016.8 |
| 20260502214301 | 55 | 185 | 0.0 | 0.0 | 0.00 | 0.00 | 0.00 | 60 | 1016.8 |
| 20260502214202 | 55 | 185 | 0.0 | 0.0 | 0.00 | 0.00 | 0.00 | 60 | 1017.0 |
| 20260502214101 | 55 | 180 | 0.0 | 0.0 | 0.00 | 0.00 | 0.00 | 60 | 1017.0 |
| 20260502214002 | 55 | 180 | 0.0 | 0.0 | 0.00 | 0.00 | 0.00 | 60 | 1017.0 |
| 20260502213901 | 55 | 180 | 0.0 | 0.0 | 0.00 | 0.00 | 0.00 | 60 | 1017.0 |
| 20260502213802 | 55 | 170 | 0.0 | 0.0 | 0.00 | 0.00 | 0.00 | 58 | 1017.0 |
| 20260502213702 | 55 | 170 | 0.0 | 0.0 | 0.00 | 0.00 | 0.00 | 58 | 1017.0 |
| 20260502213601 | 55 | 170 | 0.0 | 0.0 | 0.00 | 0.00 | 0.00 | 59 | 1017.0 |
| 20260502213502 | 55 | 170 | 0.0 | 0.0 | 0.00 | 0.00 | 0.00 | 59 | 1017.0 |
| 20260502213401 | 55 | 170 | 0.0 | 0.0 | 0.00 | 0.00 | 0.00 | 59 | 1017.0 |
| 20260502213302 | 56 | 140 | 0.0 | 0.0 | 0.00 | 0.00 | 0.00 | 58 | 1017.0 |
| 20260502213201 | 56 | 140 | 0.0 | 0.0 | 0.00 | 0.00 | 0.00 | 58 | 1017.1 |
| 20260502213102 | 56 | 140 | 0.0 | 0.0 | 0.00 | 0.00 | 0.00 | 58 | 1017.0 |
| 20260502213001 | 56 | 245 | 0.0 | 0.0 | 0.00 | 0.00 | 0.00 | 58 | 1017.0 |
| 20260502212902 | 56 | 245 | 0.0 | 0.0 | 0.00 | 0.00 | 0.00 | 58 | 1017.1 |
| 20260502212802 | 56 | 245 | 0.0 | 0.0 | 0.00 | 0.00 | 0.00 | 58 | 1017.1 |
| 20260502212701 | 56 | 245 | 0.0 | 0.0 | 0.00 | 0.00 | 0.00 | 58 | 1017.1 |
| 20260502212602 | 56 | 110 | 4.0 | 0.0 | 0.00 | 0.00 | 0.00 | 58 | 1017.1 |
| 20260502212501 | 56 | 110 | 4.0 | 0.0 | 0.00 | 0.00 | 0.00 | 58 | 1017.1 |
| 20260502212402 | 56 | 110 | 4.0 | 0.0 | 0.00 | 0.00 | 0.00 | 58 | 1017.1 |
| 20260502212304 | 56 | 50 | 0.0 | 0.0 | 0.00 | 0.00 | 0.00 | 58 | 1017.1 |
| 20260502212202 | 56 | 50 | 0.0 | 0.0 | 0.00 | 0.00 | 0.00 | 58 | 1017.1 |
| 20260502212102 | 56 | 50 | 0.0 | 0.0 | 0.00 | 0.00 | 0.00 | 58 | 1017.1 |
| 20260502212001 | 55 | 240 | 3.0 | 0.0 | 0.00 | 0.00 | 0.00 | 60 | 1017.1 |
| 20260502211902 | 55 | 240 | 3.0 | 0.0 | 0.00 | 0.00 | 0.00 | 60 | 1017.1 |
| 20260502211801 | 55 | 87 | 0.0 | 0.0 | 0.00 | 0.00 | 0.00 | 60 | 1017.1 |
| 20260502211702 | 55 | 87 | 0.0 | 0.0 | 0.00 | 0.00 | 0.00 | 60 | 1017.1 |
| 20260502211602 | 55 | 87 | 0.0 | 0.0 | 0.00 | 0.00 | 0.00 | 60 | 1017.1 |
| 20260502211502 | 55 | 87 | 0.0 | 0.0 | 0.00 | 0.00 | 0.00 | 60 | 1017.1 |
| 20260502211402 | 55 | 87 | 0.0 | 0.0 | 0.00 | 0.00 | 0.00 | 60 | 1017.1 |
| 20260502211301 | 54 | 87 | 3.0 | 0.0 | 0.00 | 0.00 | 0.00 | 62 | 1017.1 |
| 20260502211202 | 54 | 87 | 3.0 | 0.0 | 0.00 | 0.00 | 0.00 | 62 | 1017.2 |
| 20260502211101 | 54 | 87 | 0.0 | 0.0 | 0.00 | 0.00 | 0.00 | 63 | 1017.1 |
| 20260502211005 | 54 | 87 | 0.0 | 0.0 | 0.00 | 0.00 | 0.00 | 63 | 1017.1 |
| 20260502210901 | 54 | 87 | 0.0 | 0.0 | 0.00 | 0.00 | 0.00 | 63 | 1017.2 |
| 20260502210802 | 54 | 87 | 0.0 | 0.0 | 0.00 | 0.00 | 0.00 | 63 | 1017.2 |
| 20260502210702 | 54 | 70 | 0.0 | 0.0 | 0.00 | 0.00 | 0.00 | 64 | 1017.2 |
| 20260502210601 | 54 | 70 | 0.0 | 0.0 | 0.00 | 0.00 | 0.00 | 64 | 1017.2 |
| 20260502210502 | 53 | 50 | 3.0 | 0.0 | 0.00 | 0.00 | 0.00 | 66 | 1017.2 |
| 20260502210401 | 53 | 50 | 3.0 | 0.0 | 0.00 | 0.00 | 0.00 | 66 | 1017.2 |
| 20260502210302 | 52 | 140 | 0.0 | 0.0 | 0.00 | 0.00 | 0.00 | 69 | 1017.2 |
| 20260502210201 | 52 | 140 | 0.0 | 0.0 | 0.00 | 0.00 | 0.00 | 69 | 1017.2 |
| 20260502210002 | 51 | 157 | 0.0 | 0.0 | 0.00 | 0.00 | 0.00 | 70 | 1017.1 |
| 20260502205902 | 51 | 157 | 0.0 | 0.0 | 0.00 | 0.00 | 0.00 | 70 | 1017.2 |
| 20260502205802 | 51 | 157 | 0.0 | 0.0 | 0.00 | 0.00 | 0.00 | 70 | 1017.2 |
| 20260502205701 | 51 | 190 | 0.0 | 0.0 | 0.00 | 0.00 | 0.00 | 72 | 1017.1 |
| 20260502205602 | 51 | 190 | 0.0 | 0.0 | 0.00 | 0.00 | 0.00 | 72 | 1017.1 |
| 20260502205501 | 50 | 180 | 0.0 | 0.0 | 0.00 | 0.00 | 0.00 | 72 | 1017.2 |
| 20260502205402 | 50 | 180 | 0.0 | 0.0 | 0.00 | 0.00 | 0.00 | 72 | 1017.2 |
| 20260502205301 | 50 | 175 | 0.0 | 0.0 | 0.00 | 0.00 | 0.00 | 73 | 1017.2 |
| 20260502205202 | 50 | 175 | 0.0 | 0.0 | 0.00 | 0.00 | 0.00 | 73 | 1017.1 |
| 20260502205102 | 50 | 175 | 0.0 | 0.0 | 0.00 | 0.00 | 0.00 | 73 | 1017.2 |
| 20260502205001 | 50 | 205 | 0.0 | 0.0 | 0.00 | 0.00 | 0.00 | 74 | 1017.2 |
| 20260502204902 | 50 | 205 | 0.0 | 0.0 | 0.00 | 0.00 | 0.00 | 74 | 1017.2 |
| 20260502204801 | 50 | 205 | 0.0 | 0.0 | 0.00 | 0.00 | 0.00 | 74 | 1017.2 |
| 20260502204702 | 50 | 205 | 0.0 | 0.0 | 0.00 | 0.00 | 0.00 | 74 | 1017.2 |
| 20260502204602 | 50 | 205 | 0.0 | 0.0 | 0.00 | 0.00 | 0.00 | 74 | 1017.2 |
| 20260502204502 | 50 | 205 | 0.0 | 0.0 | 0.00 | 0.00 | 0.00 | 74 | 1017.2 |
| 20260502204401 | 50 | 205 | 0.0 | 0.0 | 0.00 | 0.00 | 0.00 | 74 | 1017.2 |
| 20260502204302 | 50 | 205 | 0.0 | 0.0 | 0.00 | 0.00 | 0.00 | 74 | 1017.2 |
| 20260502204202 | 50 | 192 | 0.0 | 0.0 | 0.00 | 0.00 | 0.00 | 74 | 1017.3 |
| 20260502204101 | 50 | 192 | 0.0 | 0.0 | 0.00 | 0.00 | 0.00 | 74 | 1017.3 |
| 20260502204002 | 50 | 202 | 0.0 | 0.0 | 0.00 | 0.00 | 0.00 | 75 | 1017.3 |
| 20260502203901 | 50 | 202 | 0.0 | 0.0 | 0.00 | 0.00 | 0.00 | 75 | 1017.2 |
| 20260502203802 | 50 | 202 | 0.0 | 0.0 | 0.00 | 0.00 | 0.00 | 75 | 1017.2 |
| 20260502203702 | 50 | 197 | 0.0 | 0.0 | 0.00 | 0.00 | 0.00 | 75 | 1017.2 |
| 20260502203602 | 50 | 197 | 0.0 | 0.0 | 0.00 | 0.00 | 0.00 | 75 | 1017.3 |
| 20260502203502 | 50 | 197 | 0.0 | 0.0 | 0.00 | 0.00 | 0.00 | 75 | 1017.2 |
| 20260502203401 | 50 | 207 | 3.0 | 0.0 | 0.00 | 0.00 | 0.00 | 75 | 1017.3 |
| 20260502203302 | 50 | 207 | 3.0 | 0.0 | 0.00 | 0.00 | 0.00 | 75 | 1017.2 |
| 20260502203201 | 50 | 210 | 3.0 | 0.0 | 0.00 | 0.00 | 0.00 | 75 | 1017.3 |
| 20260502203102 | 50 | 210 | 3.0 | 0.0 | 0.00 | 0.00 | 0.00 | 75 | 1017.3 |
| 20260502203001 | 50 | 207 | 4.0 | 0.0 | 0.00 | 0.00 | 0.00 | 75 | 1017.3 |
| 20260502202902 | 50 | 207 | 4.0 | 0.0 | 0.00 | 0.00 | 0.00 | 75 | 1017.3 |
| 20260502202801 | 50 | 207 | 4.0 | 0.0 | 0.00 | 0.00 | 0.00 | 75 | 1017.3 |
| 20260502202702 | 50 | 210 | 3.0 | 0.0 | 0.00 | 0.00 | 0.00 | 75 | 1017.3 |
| 20260502202602 | 50 | 210 | 3.0 | 0.0 | 0.00 | 0.00 | 0.00 | 75 | 1017.3 |
| 20260502202501 | 50 | 210 | 3.0 | 0.0 | 0.00 | 0.00 | 0.00 | 75 | 1017.3 |
| 20260502202402 | 50 | 207 | 0.0 | 0.0 | 0.00 | 0.00 | 0.00 | 75 | 1017.3 |
| 20260502202304 | 50 | 207 | 0.0 | 0.0 | 0.00 | 0.00 | 0.00 | 75 | 1017.3 |
| 20260502202202 | 50 | 207 | 0.0 | 0.0 | 0.00 | 0.00 | 0.00 | 75 | 1017.3 |
| 20260502202101 | 50 | 207 | 0.0 | 0.0 | 0.00 | 0.00 | 0.00 | 75 | 1017.4 |
| 20260502202002 | 50 | 207 | 0.0 | 0.0 | 0.00 | 0.00 | 0.00 | 75 | 1017.3 |
| 20260502201901 | 50 | 207 | 0.0 | 0.0 | 0.00 | 0.00 | 0.00 | 75 | 1017.4 |
| 20260502201801 | 50 | 207 | 0.0 | 0.0 | 0.00 | 0.00 | 0.00 | 75 | 1017.4 |
| 20260502201702 | 50 | 210 | 0.0 | 0.0 | 0.00 | 0.00 | 0.00 | 75 | 1017.4 |
| 20260502201601 | 50 | 210 | 0.0 | 0.0 | 0.00 | 0.00 | 0.00 | 75 | 1017.4 |
| 20260502201502 | 50 | 210 | 0.0 | 0.0 | 0.00 | 0.00 | 0.00 | 75 | 1017.3 |
| 20260502201401 | 50 | 212 | 0.0 | 0.0 | 0.00 | 0.00 | 0.00 | 75 | 1017.4 |
| 20260502201302 | 50 | 212 | 0.0 | 0.0 | 0.00 | 0.00 | 0.00 | 75 | 1017.4 |
| 20260502201201 | 50 | 212 | 0.0 | 0.0 | 0.00 | 0.00 | 0.00 | 75 | 1017.4 |
| 20260502201102 | 51 | 215 | 3.0 | 0.0 | 0.00 | 0.00 | 0.00 | 74 | 1017.4 |
| 20260502201002 | 51 | 215 | 3.0 | 0.0 | 0.00 | 0.00 | 0.00 | 74 | 1017.4 |
| 20260502200901 | 51 | 215 | 3.0 | 0.0 | 0.00 | 0.00 | 0.00 | 74 | 1017.4 |
| 20260502200802 | 51 | 215 | 3.0 | 0.0 | 0.00 | 0.00 | 0.00 | 74 | 1017.4 |
| 20260502200701 | 51 | 215 | 3.0 | 0.0 | 0.00 | 0.00 | 0.00 | 74 | 1017.4 |
| 20260502200602 | 51 | 215 | 3.0 | 0.0 | 0.00 | 0.00 | 0.00 | 74 | 1017.5 |
| 20260502200501 | 51 | 215 | 3.0 | 0.0 | 0.00 | 0.00 | 0.00 | 74 | 1017.4 |
| 20260502200402 | 51 | 215 | 3.0 | 0.0 | 0.00 | 0.00 | 0.00 | 74 | 1017.5 |
| 20260502200301 | 51 | 215 | 3.0 | 0.0 | 0.00 | 0.00 | 0.00 | 74 | 1017.4 |
| 20260502200202 | 51 | 215 | 3.0 | 0.0 | 0.00 | 0.00 | 0.00 | 74 | 1017.5 |
| 20260502200001 | 51 | 215 | 2.0 | 0.0 | 0.00 | 0.00 | 0.00 | 74 | 1017.5 |
| 20260502195902 | 51 | 215 | 3.0 | 0.0 | 0.00 | 0.00 | 0.00 | 74 | 1017.5 |
| 20260502195801 | 51 | 215 | 3.0 | 0.0 | 0.00 | 0.00 | 0.00 | 74 | 1017.5 |
| 20260502195703 | 51 | 212 | 3.0 | 0.0 | 0.00 | 0.00 | 0.00 | 74 | 1017.5 |
| 20260502195601 | 51 | 212 | 3.0 | 0.0 | 0.00 | 0.00 | 0.00 | 74 | 1017.5 |
| 20260502195502 | 51 | 212 | 3.0 | 0.0 | 0.00 | 0.00 | 0.00 | 74 | 1017.5 |
| 20260502195402 | 51 | 200 | 4.0 | 0.0 | 0.00 | 0.00 | 0.00 | 74 | 1017.5 |
| 20260502195301 | 51 | 200 | 4.0 | 0.0 | 0.00 | 0.00 | 0.00 | 74 | 1017.5 |
| 20260502195202 | 51 | 200 | 4.0 | 0.0 | 0.00 | 0.00 | 0.00 | 74 | 1017.5 |
| 20260502195101 | 51 | 217 | 3.0 | 0.0 | 0.00 | 0.00 | 0.00 | 74 | 1017.5 |
| 20260502195002 | 51 | 217 | 3.0 | 0.0 | 0.00 | 0.00 | 0.00 | 74 | 1017.5 |
| 20260502194902 | 51 | 217 | 3.0 | 0.0 | 0.00 | 0.00 | 0.00 | 74 | 1017.5 |
| 20260502194802 | 51 | 207 | 0.0 | 0.0 | 0.00 | 0.00 | 0.00 | 74 | 1017.5 |
| 20260502194702 | 51 | 207 | 0.0 | 0.0 | 0.00 | 0.00 | 0.00 | 74 | 1017.5 |
| 20260502194601 | 51 | 207 | 0.0 | 0.0 | 0.00 | 0.00 | 0.00 | 74 | 1017.4 |
| 20260502194502 | 51 | 207 | 0.0 | 0.0 | 0.00 | 0.00 | 0.00 | 74 | 1017.5 |
| 20260502194401 | 51 | 210 | 0.0 | 0.0 | 0.00 | 0.00 | 0.00 | 73 | 1017.5 |
| 20260502194302 | 51 | 210 | 0.0 | 0.0 | 0.00 | 0.00 | 0.00 | 73 | 1017.5 |
| 20260502194201 | 51 | 210 | 0.0 | 0.0 | 0.00 | 0.00 | 0.00 | 73 | 1017.4 |
| 20260502194102 | 52 | 187 | 0.0 | 0.0 | 0.00 | 0.00 | 0.00 | 73 | 1017.5 |
| 20260502194001 | 52 | 187 | 0.0 | 0.0 | 0.00 | 0.00 | 0.00 | 73 | 1017.5 |
| 20260502193901 | 52 | 187 | 0.0 | 0.0 | 0.00 | 0.00 | 0.00 | 73 | 1017.4 |
| 20260502193802 | 52 | 195 | 0.0 | 0.0 | 0.00 | 0.00 | 0.00 | 72 | 1017.5 |
| 20260502193701 | 52 | 195 | 0.0 | 0.0 | 0.00 | 0.00 | 0.00 | 72 | 1017.5 |
| 20260502193602 | 53 | 200 | 0.0 | 0.0 | 0.00 | 0.00 | 0.00 | 72 | 1017.5 |
| 20260502193501 | 53 | 200 | 0.0 | 0.0 | 0.00 | 0.00 | 0.00 | 72 | 1017.5 |
| 20260502193402 | 53 | 200 | 0.0 | 0.0 | 0.00 | 0.00 | 0.00 | 72 | 1017.5 |
| 20260502193302 | 53 | 210 | 0.0 | 0.0 | 0.00 | 0.00 | 0.00 | 71 | 1017.5 |
| 20260502193201 | 53 | 210 | 0.0 | 0.0 | 0.00 | 0.00 | 0.00 | 71 | 1017.5 |
| 20260502193102 | 53 | 205 | 0.0 | 0.0 | 0.00 | 0.00 | 0.00 | 70 | 1017.5 |
| 20260502193001 | 53 | 205 | 0.0 | 0.0 | 0.00 | 0.00 | 0.00 | 70 | 1017.5 |
| 20260502192902 | 53 | 205 | 0.0 | 0.0 | 0.00 | 0.00 | 0.00 | 70 | 1017.5 |
| 20260502192801 | 53 | 205 | 0.0 | 0.0 | 0.00 | 0.00 | 0.00 | 70 | 1017.5 |
| 20260502192702 | 53 | 205 | 0.0 | 0.0 | 0.00 | 0.00 | 0.00 | 70 | 1017.5 |
| 20260502192602 | 53 | 207 | 0.0 | 0.0 | 0.00 | 0.00 | 0.00 | 70 | 1017.5 |
| 20260502192501 | 53 | 207 | 0.0 | 0.0 | 0.00 | 0.00 | 0.00 | 70 | 1017.5 |
| 20260502192402 | 54 | 220 | 0.0 | 0.0 | 0.00 | 0.00 | 0.00 | 69 | 1017.5 |
| 20260502192304 | 54 | 220 | 0.0 | 0.0 | 0.00 | 0.00 | 0.00 | 69 | 1017.5 |
| 20260502192202 | 54 | 220 | 0.0 | 0.0 | 0.00 | 0.00 | 0.00 | 69 | 1017.5 |
| 20260502192101 | 54 | 220 | 0.0 | 0.0 | 0.00 | 0.00 | 0.00 | 69 | 1017.5 |
| 20260502192002 | 54 | 220 | 0.0 | 0.0 | 0.00 | 0.00 | 0.00 | 69 | 1017.4 |
| 20260502191902 | 54 | 220 | 0.0 | 0.0 | 0.00 | 0.00 | 0.00 | 69 | 1017.5 |
| 20260502191802 | 54 | 205 | 0.0 | 0.0 | 0.00 | 0.00 | 0.00 | 69 | 1017.5 |
| 20260502191702 | 54 | 205 | 0.0 | 0.0 | 0.00 | 0.00 | 0.00 | 69 | 1017.5 |
| 20260502191601 | 55 | 202 | 0.0 | 0.0 | 0.00 | 0.00 | 0.00 | 68 | 1017.5 |
| 20260502191502 | 55 | 202 | 0.0 | 0.0 | 0.00 | 0.00 | 0.00 | 68 | 1017.5 |
| 20260502191401 | 55 | 202 | 0.0 | 0.0 | 0.00 | 0.00 | 0.00 | 68 | 1017.5 |
| 20260502191302 | 55 | 202 | 0.0 | 0.0 | 0.00 | 0.00 | 0.00 | 68 | 1017.5 |
| 20260502191202 | 55 | 202 | 0.0 | 0.0 | 0.00 | 0.00 | 0.00 | 68 | 1017.5 |
| 20260502191101 | 56 | 190 | 0.0 | 0.0 | 0.00 | 0.00 | 0.00 | 67 | 1017.5 |
| 20260502191002 | 56 | 190 | 0.0 | 0.0 | 0.00 | 0.00 | 0.00 | 67 | 1017.5 |
| 20260502190901 | 56 | 190 | 0.0 | 0.0 | 0.00 | 0.00 | 0.00 | 67 | 1017.4 |
| 20260502190802 | 56 | 190 | 0.0 | 0.0 | 0.00 | 0.00 | 0.00 | 67 | 1017.5 |
| 20260502190701 | 56 | 190 | 0.0 | 0.0 | 0.00 | 0.00 | 0.00 | 67 | 1017.4 |
| 20260502190602 | 56 | 190 | 0.0 | 0.0 | 0.00 | 0.00 | 0.00 | 67 | 1017.5 |
| 20260502190501 | 56 | 190 | 0.0 | 0.0 | 0.00 | 0.00 | 0.00 | 67 | 1017.5 |
| 20260502190402 | 56 | 190 | 0.0 | 0.0 | 0.00 | 0.00 | 0.00 | 67 | 1017.4 |
| 20260502190302 | 56 | 195 | 0.0 | 0.0 | 0.00 | 0.00 | 0.00 | 66 | 1017.5 |
| 20260502190201 | 56 | 195 | 0.0 | 0.0 | 0.00 | 0.00 | 0.00 | 66 | 1017.4 |
| 20260502190001 | 57 | 202 | 0.0 | 0.0 | 0.00 | 0.00 | 0.00 | 63 | 1017.4 |
| 20260502185902 | 57 | 202 | 0.0 | 0.0 | 0.00 | 0.00 | 0.00 | 63 | 1017.4 |
| 20260502185801 | 57 | 202 | 0.0 | 0.0 | 0.00 | 0.00 | 0.00 | 63 | 1017.5 |
| 20260502185702 | 57 | 202 | 0.0 | 0.0 | 0.00 | 0.00 | 0.00 | 63 | 1017.4 |
| 20260502185603 | 57 | 202 | 0.0 | 0.0 | 0.00 | 0.00 | 0.00 | 63 | 1017.4 |
| 20260502185501 | 58 | 202 | 0.0 | 0.0 | 0.00 | 0.00 | 0.00 | 63 | 1017.4 |
| 20260502185402 | 58 | 202 | 0.0 | 0.0 | 0.00 | 0.00 | 0.00 | 63 | 1017.4 |
| 20260502185301 | 58 | 185 | 0.0 | 0.0 | 0.00 | 0.00 | 0.00 | 62 | 1017.4 |
| 20260502185202 | 58 | 185 | 0.0 | 0.0 | 0.00 | 0.00 | 0.00 | 62 | 1017.4 |
| 20260502185101 | 58 | 185 | 0.0 | 0.0 | 0.00 | 0.00 | 0.00 | 62 | 1017.4 |
| 20260502185002 | 59 | 192 | 0.0 | 0.0 | 0.00 | 0.00 | 0.00 | 61 | 1017.4 |
| 20260502184902 | 59 | 192 | 0.0 | 0.0 | 0.00 | 0.00 | 0.00 | 61 | 1017.4 |
| 20260502184801 | 59 | 210 | 0.0 | 0.0 | 0.00 | 0.00 | 0.00 | 59 | 1017.4 |
| 20260502184702 | 59 | 210 | 0.0 | 0.0 | 0.00 | 0.00 | 0.00 | 59 | 1017.4 |
| 20260502184601 | 59 | 210 | 0.0 | 0.0 | 0.00 | 0.00 | 0.00 | 59 | 1017.4 |
| 20260502184502 | 60 | 215 | 0.0 | 0.0 | 0.00 | 0.00 | 0.00 | 58 | 1017.4 |
| 20260502184401 | 60 | 215 | 0.0 | 0.0 | 0.00 | 0.00 | 0.00 | 58 | 1017.4 |
| 20260502184302 | 60 | 197 | 0.0 | 0.0 | 0.00 | 0.00 | 0.00 | 57 | 1017.3 |
| 20260502184202 | 60 | 197 | 0.0 | 0.0 | 0.00 | 0.00 | 0.00 | 57 | 1017.3 |
| 20260502184102 | 60 | 197 | 0.0 | 0.0 | 0.00 | 0.00 | 0.00 | 57 | 1017.3 |
| 20260502184002 | 61 | 185 | 3.0 | 0.0 | 0.00 | 0.00 | 0.00 | 56 | 1017.3 |
| 20260502183901 | 61 | 185 | 3.0 | 0.0 | 0.00 | 0.00 | 0.00 | 56 | 1017.3 |
| 20260502183802 | 63 | 210 | 0.0 | 0.0 | 0.00 | 0.00 | 0.00 | 52 | 1017.3 |
| 20260502183701 | 63 | 210 | 0.0 | 0.0 | 0.00 | 0.00 | 0.00 | 52 | 1017.3 |
| 20260502183602 | 63 | 210 | 0.0 | 0.0 | 0.00 | 0.00 | 0.00 | 52 | 1017.3 |
| 20260502183501 | 63 | 210 | 0.0 | 0.0 | 0.00 | 0.00 | 0.00 | 52 | 1017.4 |
| 20260502183402 | 63 | 210 | 0.0 | 0.0 | 0.00 | 0.00 | 0.00 | 52 | 1017.3 |
| 20260502183302 | 63 | 210 | 0.0 | 0.0 | 0.00 | 0.00 | 0.00 | 52 | 1017.3 |
| 20260502183201 | 63 | 210 | 0.0 | 0.0 | 0.00 | 0.00 | 0.00 | 52 | 1017.3 |
| 20260502183102 | 63 | 210 | 0.0 | 0.0 | 0.00 | 0.00 | 0.00 | 52 | 1017.3 |
| 20260502183001 | 63 | 210 | 0.0 | 0.0 | 0.00 | 0.00 | 0.00 | 52 | 1017.3 |
| 20260502182902 | 63 | 210 | 0.0 | 0.0 | 0.00 | 0.00 | 0.00 | 52 | 1017.4 |
| 20260502182801 | 63 | 210 | 0.0 | 0.0 | 0.00 | 0.00 | 0.00 | 52 | 1017.3 |
| 20260502182702 | 64 | 202 | 0.0 | 0.0 | 0.00 | 0.00 | 0.00 | 50 | 1017.3 |
| 20260502182602 | 64 | 202 | 0.0 | 0.0 | 0.00 | 0.00 | 0.00 | 50 | 1017.4 |
| 20260502182501 | 64 | 202 | 0.0 | 0.0 | 0.00 | 0.00 | 0.00 | 50 | 1017.3 |
| 20260502182402 | 65 | 195 | 0.0 | 0.0 | 0.00 | 0.00 | 0.00 | 49 | 1017.3 |
| 20260502182304 | 65 | 195 | 0.0 | 0.0 | 0.00 | 0.00 | 0.00 | 49 | 1017.3 |
| 20260502182202 | 65 | 165 | 0.0 | 0.0 | 0.00 | 0.00 | 0.00 | 49 | 1017.3 |
| 20260502182101 | 65 | 165 | 0.0 | 0.0 | 0.00 | 0.00 | 0.00 | 49 | 1017.3 |
| 20260502182002 | 65 | 165 | 0.0 | 0.0 | 0.00 | 0.00 | 0.00 | 49 | 1017.3 |
| 20260502181902 | 65 | 115 | 0.0 | 0.0 | 0.00 | 0.00 | 0.00 | 48 | 1017.3 |
| 20260502181802 | 65 | 115 | 0.0 | 0.0 | 0.00 | 0.00 | 0.00 | 48 | 1017.3 |
| 20260502181702 | 66 | 112 | 0.0 | 0.0 | 0.00 | 0.00 | 0.00 | 47 | 1017.3 |
| 20260502181601 | 66 | 112 | 0.0 | 0.0 | 0.00 | 0.00 | 0.00 | 47 | 1017.3 |
| 20260502181502 | 66 | 112 | 0.0 | 0.0 | 0.00 | 0.00 | 0.00 | 47 | 1017.3 |
| 20260502181401 | 66 | 100 | 0.0 | 0.0 | 0.00 | 0.00 | 0.00 | 44 | 1017.3 |
| 20260502181302 | 66 | 100 | 0.0 | 0.0 | 0.00 | 0.00 | 0.00 | 44 | 1017.3 |
| 20260502181201 | 66 | 100 | 0.0 | 0.0 | 0.00 | 0.00 | 0.00 | 44 | 1017.3 |
| 20260502181102 | 66 | 92 | 3.0 | 0.0 | 0.00 | 0.00 | 0.00 | 43 | 1017.3 |
| 20260502181002 | 67 | 85 | 3.0 | 0.0 | 0.00 | 0.00 | 0.00 | 43 | 1017.3 |
| 20260502180901 | 67 | 85 | 3.0 | 0.0 | 0.00 | 0.00 | 0.00 | 43 | 1017.3 |
| 20260502180802 | 67 | 85 | 3.0 | 0.0 | 0.00 | 0.00 | 0.00 | 43 | 1017.3 |
| 20260502180701 | 67 | 75 | 4.0 | 0.0 | 0.00 | 0.00 | 0.00 | 42 | 1017.3 |
| 20260502180602 | 67 | 75 | 4.0 | 0.0 | 0.00 | 0.00 | 0.00 | 42 | 1017.3 |
| 20260502180501 | 67 | 75 | 4.0 | 0.0 | 0.00 | 0.00 | 0.00 | 42 | 1017.3 |
| 20260502180402 | 67 | 75 | 4.0 | 0.0 | 0.00 | 0.00 | 0.00 | 42 | 1017.3 |
| 20260502180301 | 67 | 75 | 4.0 | 0.0 | 0.00 | 0.00 | 0.00 | 42 | 1017.3 |
| 20260502180202 | 67 | 75 | 5.0 | 0.0 | 0.00 | 0.00 | 0.00 | 42 | 1017.3 |
| 20260502170501 | 70 | 20 | 6.0 | 0.0 | 0.00 | 0.00 | 0.00 | 39 | 1017.6 |
| 20260502170402 | 70 | 20 | 6.0 | 0.0 | 0.00 | 0.00 | 0.00 | 39 | 1017.6 |
| 20260502170302 | 71 | 27 | 5.0 | 0.0 | 0.00 | 0.00 | 0.00 | 37 | 1017.6 |
| 20260502170201 | 71 | 27 | 5.0 | 0.0 | 0.00 | 0.00 | 0.00 | 37 | 1017.6 |
| 20260502164302 | 71 | 35 | 7.0 | 0.0 | 0.00 | 0.00 | 0.00 | 36 | 1017.8 |
| 20260502164201 | 71 | 35 | 7.0 | 0.0 | 0.00 | 0.00 | 0.00 | 36 | 1017.8 |
| 20260502164101 | 71 | 37 | 9.0 | 0.0 | 0.00 | 0.00 | 0.00 | 36 | 1017.8 |
| 20260502164002 | 71 | 37 | 9.0 | 0.0 | 0.00 | 0.00 | 0.00 | 36 | 1017.8 |
| 20260502163901 | 71 | 37 | 9.0 | 0.0 | 0.00 | 0.00 | 0.00 | 36 | 1017.8 |
| 20260502163802 | 71 | 40 | 9.0 | 0.0 | 0.00 | 0.00 | 0.00 | 37 | 1017.8 |
| 20260502163701 | 71 | 40 | 9.0 | 0.0 | 0.00 | 0.00 | 0.00 | 37 | 1017.9 |
| 20260502163602 | 71 | 12 | 6.0 | 0.0 | 0.00 | 0.00 | 0.00 | 36 | 1017.9 |
| 20260502163502 | 71 | 12 | 6.0 | 0.0 | 0.00 | 0.00 | 0.00 | 36 | 1017.9 |
| 20260502163402 | 71 | 12 | 6.0 | 0.0 | 0.00 | 0.00 | 0.00 | 36 | 1017.9 |
| 20260502163302 | 71 | 12 | 6.0 | 0.0 | 0.00 | 0.00 | 0.00 | 36 | 1017.9 |
| 20260502163201 | 71 | 12 | 6.0 | 0.0 | 0.00 | 0.00 | 0.00 | 36 | 1017.9 |
| 20260502163102 | 71 | 15 | 8.0 | 0.0 | 0.00 | 0.00 | 0.00 | 37 | 1017.9 |
| 20260502163001 | 71 | 15 | 8.0 | 0.0 | 0.00 | 0.00 | 0.00 | 37 | 1017.9 |
| 20260502162902 | 71 | 2 | 6.0 | 0.0 | 0.00 | 0.00 | 0.00 | 36 | 1017.9 |
| 20260502162801 | 71 | 2 | 6.0 | 0.0 | 0.00 | 0.00 | 0.00 | 36 | 1018.0 |
| 20260502162702 | 71 | 2 | 6.0 | 0.0 | 0.00 | 0.00 | 0.00 | 36 | 1017.9 |
| 20260502162602 | 71 | 5 | 7.0 | 0.0 | 0.00 | 0.00 | 0.00 | 36 | 1017.9 |
| 20260502162501 | 71 | 5 | 7.0 | 0.0 | 0.00 | 0.00 | 0.00 | 36 | 1017.9 |
| 20260502162402 | 71 | 5 | 7.0 | 0.0 | 0.00 | 0.00 | 0.00 | 36 | 1017.9 |
| 20260502162304 | 71 | 5 | 7.0 | 0.0 | 0.00 | 0.00 | 0.00 | 36 | 1018.0 |
| 20260502162202 | 71 | 5 | 7.0 | 0.0 | 0.00 | 0.00 | 0.00 | 36 | 1018.0 |
| 20260502162101 | 71 | 0 | 8.0 | 0.0 | 0.00 | 0.00 | 0.00 | 35 | 1018.0 |
| 20260502162002 | 71 | 0 | 8.0 | 0.0 | 0.00 | 0.00 | 0.00 | 35 | 1018.0 |
| 20260502161902 | 71 | 0 | 8.0 | 0.0 | 0.00 | 0.00 | 0.00 | 35 | 1018.0 |
| 20260502161802 | 71 | 2 | 8.0 | 0.0 | 0.00 | 0.00 | 0.00 | 35 | 1018.0 |
| 20260502161702 | 71 | 2 | 8.0 | 0.0 | 0.00 | 0.00 | 0.00 | 35 | 1018.0 |
| 20260502161601 | 71 | 20 | 5.0 | 0.0 | 0.00 | 0.00 | 0.00 | 35 | 1018.1 |
| 20260502161502 | 71 | 20 | 5.0 | 0.0 | 0.00 | 0.00 | 0.00 | 35 | 1018.1 |
| 20260502161401 | 71 | 20 | 5.0 | 0.0 | 0.00 | 0.00 | 0.00 | 35 | 1018.1 |
| 20260502161302 | 71 | 20 | 5.0 | 0.0 | 0.00 | 0.00 | 0.00 | 35 | 1018.1 |
| 20260502161201 | 71 | 20 | 5.0 | 0.0 | 0.00 | 0.00 | 0.00 | 35 | 1018.1 |
| 20260502161102 | 71 | 30 | 6.0 | 0.0 | 0.00 | 0.00 | 0.00 | 35 | 1018.1 |
| 20260502161002 | 71 | 30 | 8.0 | 0.0 | 0.00 | 0.00 | 0.00 | 36 | 1018.1 |
| 20260502160901 | 71 | 30 | 8.0 | 0.0 | 0.00 | 0.00 | 0.00 | 36 | 1018.2 |
| 20260502160802 | 71 | 22 | 12.0 | 0.0 | 0.00 | 0.00 | 0.00 | 36 | 1018.2 |
| 20260502160701 | 71 | 17 | 10.0 | 0.0 | 0.00 | 0.00 | 0.00 | 36 | 1018.1 |
| 20260502160602 | 71 | 17 | 10.0 | 0.0 | 0.00 | 0.00 | 0.00 | 36 | 1018.2 |
| 20260502160501 | 71 | 17 | 10.0 | 0.0 | 0.00 | 0.00 | 0.00 | 36 | 1018.2 |
| 20260502160402 | 71 | 17 | 10.0 | 0.0 | 0.00 | 0.00 | 0.00 | 36 | 1018.2 |
| 20260502160302 | 71 | 17 | 10.0 | 0.0 | 0.00 | 0.00 | 0.00 | 36 | 1018.2 |
| 20260502160202 | 71 | 17 | 10.0 | 0.0 | 0.00 | 0.00 | 0.00 | 36 | 1018.2 |
| 20260502152301 | 72 | 57 | 8.0 | 0.0 | 0.00 | 0.00 | 0.00 | 35 | 1018.5 |
| 20260502152202 | 72 | 40 | 9.0 | 0.0 | 0.00 | 0.00 | 0.00 | 35 | 1018.5 |
| 20260502152101 | 72 | 40 | 9.0 | 0.0 | 0.00 | 0.00 | 0.00 | 35 | 1018.5 |
| 20260502152002 | 72 | 40 | 9.0 | 0.0 | 0.00 | 0.00 | 0.00 | 35 | 1018.5 |
| 20260502151901 | 72 | 40 | 9.0 | 0.0 | 0.00 | 0.00 | 0.00 | 35 | 1018.5 |
| 20260502151801 | 72 | 40 | 9.0 | 0.0 | 0.00 | 0.00 | 0.00 | 35 | 1018.5 |
| 20260502151702 | 72 | 55 | 8.0 | 0.0 | 0.00 | 0.00 | 0.00 | 36 | 1018.5 |
| 20260502151601 | 72 | 55 | 8.0 | 0.0 | 0.00 | 0.00 | 0.00 | 36 | 1018.6 |
| 20260502151502 | 72 | 55 | 8.0 | 0.0 | 0.00 | 0.00 | 0.00 | 36 | 1018.5 |
| 20260502151401 | 72 | 42 | 12.0 | 0.0 | 0.00 | 0.00 | 0.00 | 35 | 1018.5 |
| 20260502151302 | 72 | 42 | 12.0 | 0.0 | 0.00 | 0.00 | 0.00 | 35 | 1018.6 |
| 20260502151201 | 72 | 42 | 12.0 | 0.0 | 0.00 | 0.00 | 0.00 | 35 | 1018.6 |
| 20260502151102 | 72 | 42 | 12.0 | 0.0 | 0.00 | 0.00 | 0.00 | 35 | 1018.6 |
| 20260502151002 | 72 | 30 | 8.0 | 0.0 | 0.00 | 0.00 | 0.00 | 35 | 1018.6 |
| 20260502150901 | 72 | 30 | 8.0 | 0.0 | 0.00 | 0.00 | 0.00 | 35 | 1018.6 |
| 20260502150802 | 72 | 30 | 8.0 | 0.0 | 0.00 | 0.00 | 0.00 | 35 | 1018.6 |
| 20260502150701 | 72 | 32 | 9.0 | 0.0 | 0.00 | 0.00 | 0.00 | 35 | 1018.6 |
| 20260502150602 | 72 | 32 | 9.0 | 0.0 | 0.00 | 0.00 | 0.00 | 35 | 1018.7 |
| 20260502150501 | 72 | 10 | 14.0 | 0.0 | 0.00 | 0.00 | 0.00 | 34 | 1018.6 |
| 20260502150402 | 72 | 10 | 14.0 | 0.0 | 0.00 | 0.00 | 0.00 | 34 | 1018.6 |
| 20260502150301 | 72 | 12 | 6.0 | 0.0 | 0.00 | 0.00 | 0.00 | 35 | 1018.6 |
| 20260502150202 | 72 | 12 | 6.0 | 0.0 | 0.00 | 0.00 | 0.00 | 35 | 1018.7 |
| 20260502130702 | 71 | 40 | 13.0 | 0.0 | 0.00 | 0.00 | 0.00 | 36 | 1019.9 |
| 20260502130601 | 71 | 35 | 10.0 | 0.0 | 0.00 | 0.00 | 0.00 | 36 | 1019.9 |
| 20260502130502 | 71 | 35 | 10.0 | 0.0 | 0.00 | 0.00 | 0.00 | 36 | 1020.0 |
| 20260502130401 | 71 | 35 | 10.0 | 0.0 | 0.00 | 0.00 | 0.00 | 36 | 1020.0 |
| 20260502130302 | 71 | 40 | 14.0 | 0.0 | 0.00 | 0.00 | 0.00 | 35 | 1020.0 |
| 20260502130201 | 71 | 40 | 14.0 | 0.0 | 0.00 | 0.00 | 0.00 | 35 | 1020.0 |
| 20260502123802 | 71 | 37 | 9.0 | 0.0 | 0.00 | 0.00 | 0.00 | 37 | 1020.2 |
| 20260502123701 | 71 | 37 | 9.0 | 0.0 | 0.00 | 0.00 | 0.00 | 37 | 1020.2 |
| 20260502123602 | 71 | 37 | 9.0 | 0.0 | 0.00 | 0.00 | 0.00 | 37 | 1020.3 |
| 20260502123502 | 71 | 30 | 12.0 | 0.0 | 0.00 | 0.00 | 0.00 | 37 | 1020.3 |
| 20260502123401 | 71 | 30 | 12.0 | 0.0 | 0.00 | 0.00 | 0.00 | 37 | 1020.3 |
| 20260502123302 | 71 | 30 | 12.0 | 0.0 | 0.00 | 0.00 | 0.00 | 37 | 1020.3 |
| 20260502123201 | 71 | 35 | 13.0 | 0.0 | 0.00 | 0.00 | 0.00 | 37 | 1020.3 |
| 20260502123102 | 71 | 35 | 13.0 | 0.0 | 0.00 | 0.00 | 0.00 | 37 | 1020.3 |
| 20260502123001 | 71 | 12 | 10.0 | 0.0 | 0.00 | 0.00 | 0.00 | 38 | 1020.3 |
| 20260502122902 | 71 | 12 | 10.0 | 0.0 | 0.00 | 0.00 | 0.00 | 38 | 1020.3 |
| 20260502122802 | 71 | 12 | 10.0 | 0.0 | 0.00 | 0.00 | 0.00 | 38 | 1020.3 |
| 20260502122701 | 71 | 5 | 13.0 | 0.0 | 0.00 | 0.00 | 0.00 | 38 | 1020.3 |
| 20260502122602 | 71 | 2 | 9.0 | 0.0 | 0.00 | 0.00 | 0.00 | 38 | 1020.3 |
| 20260502122501 | 71 | 2 | 9.0 | 0.0 | 0.00 | 0.00 | 0.00 | 38 | 1020.4 |
| 20260502122402 | 71 | 30 | 6.0 | 0.0 | 0.00 | 0.00 | 0.00 | 37 | 1020.4 |
| 20260502122301 | 71 | 30 | 6.0 | 0.0 | 0.00 | 0.00 | 0.00 | 37 | 1020.4 |
| 20260502122202 | 71 | 30 | 6.0 | 0.0 | 0.00 | 0.00 | 0.00 | 37 | 1020.4 |
| 20260502122102 | 71 | 30 | 6.0 | 0.0 | 0.00 | 0.00 | 0.00 | 37 | 1020.4 |
| 20260502122001 | 71 | 30 | 15.0 | 0.0 | 0.00 | 0.00 | 0.00 | 38 | 1020.4 |
| 20260502121902 | 71 | 30 | 13.0 | 0.0 | 0.00 | 0.00 | 0.00 | 37 | 1020.5 |
| 20260502121702 | 70 | 35 | 8.0 | 0.0 | 0.00 | 0.00 | 0.00 | 37 | 1020.5 |
| 20260502121601 | 70 | 35 | 8.0 | 0.0 | 0.00 | 0.00 | 0.00 | 37 | 1020.5 |
| 20260502121502 | 70 | 35 | 8.0 | 0.0 | 0.00 | 0.00 | 0.00 | 37 | 1020.5 |
| 20260502121402 | 70 | 25 | 13.0 | 0.0 | 0.00 | 0.00 | 0.00 | 38 | 1020.5 |
| 20260502121301 | 70 | 25 | 13.0 | 0.0 | 0.00 | 0.00 | 0.00 | 38 | 1020.5 |
| 20260502121202 | 70 | 17 | 6.0 | 0.0 | 0.00 | 0.00 | 0.00 | 39 | 1020.5 |
| 20260502121101 | 70 | 17 | 6.0 | 0.0 | 0.00 | 0.00 | 0.00 | 39 | 1020.5 |
| 20260502121002 | 70 | 15 | 11.0 | 0.0 | 0.00 | 0.00 | 0.00 | 37 | 1020.6 |
| 20260502120901 | 70 | 15 | 11.0 | 0.0 | 0.00 | 0.00 | 0.00 | 37 | 1020.6 |
| 20260502120802 | 71 | 20 | 12.0 | 0.0 | 0.00 | 0.00 | 0.00 | 38 | 1020.6 |
| 20260502120702 | 71 | 22 | 14.0 | 0.0 | 0.00 | 0.00 | 0.00 | 38 | 1020.6 |
| 20260502120602 | 71 | 22 | 14.0 | 0.0 | 0.00 | 0.00 | 0.00 | 38 | 1020.6 |
| 20260502120502 | 71 | 357 | 7.0 | 0.0 | 0.00 | 0.00 | 0.00 | 38 | 1020.6 |
| 20260502120401 | 71 | 357 | 7.0 | 0.0 | 0.00 | 0.00 | 0.00 | 38 | 1020.6 |
| 20260502120302 | 71 | 357 | 7.0 | 0.0 | 0.00 | 0.00 | 0.00 | 38 | 1020.6 |
| 20260502120201 | 70 | 10 | 6.0 | 0.0 | 0.00 | 0.00 | 0.00 | 38 | 1020.6 |
| 20260502115901 | 70 | 25 | 9.0 | 0.0 | 0.00 | 0.00 | 0.00 | 37 | 1020.7 |
| 20260502115802 | 70 | 25 | 9.0 | 0.0 | 0.00 | 0.00 | 0.00 | 37 | 1020.7 |
| 20260502115701 | 71 | 27 | 14.0 | 0.0 | 0.00 | 0.00 | 0.00 | 38 | 1020.7 |
| 20260502115602 | 71 | 35 | 12.0 | 0.0 | 0.00 | 0.00 | 0.00 | 38 | 1020.7 |
| 20260502115501 | 71 | 35 | 12.0 | 0.0 | 0.00 | 0.00 | 0.00 | 38 | 1020.7 |
| 20260502115402 | 71 | 27 | 15.0 | 0.0 | 0.00 | 0.00 | 0.00 | 38 | 1020.7 |
| 20260502115305 | 71 | 27 | 15.0 | 0.0 | 0.00 | 0.00 | 0.00 | 38 | 1020.7 |
| 20260502115201 | 70 | 32 | 6.0 | 0.0 | 0.00 | 0.00 | 0.00 | 37 | 1020.7 |
| 20260502115102 | 70 | 35 | 10.0 | 0.0 | 0.00 | 0.00 | 0.00 | 37 | 1020.9 |
| 20260502115001 | 70 | 35 | 10.0 | 0.0 | 0.00 | 0.00 | 0.00 | 37 | 1020.7 |
| 20260502114902 | 70 | 7 | 14.0 | 0.0 | 0.00 | 0.00 | 0.00 | 39 | 1020.7 |
| 20260502114801 | 70 | 7 | 14.0 | 0.0 | 0.00 | 0.00 | 0.00 | 39 | 1020.7 |
| 20260502114702 | 70 | 357 | 15.0 | 0.0 | 0.00 | 0.00 | 0.00 | 39 | 1020.9 |
| 20260502114601 | 70 | 357 | 15.0 | 0.0 | 0.00 | 0.00 | 0.00 | 39 | 1020.9 |
| 20260502114502 | 69 | 357 | 5.0 | 0.0 | 0.00 | 0.00 | 0.00 | 39 | 1020.9 |
| 20260502114402 | 69 | 22 | 6.0 | 0.0 | 0.00 | 0.00 | 0.00 | 39 | 1021.0 |
| 20260502114301 | 69 | 22 | 6.0 | 0.0 | 0.00 | 0.00 | 0.00 | 39 | 1021.0 |
| 20260502114202 | 69 | 15 | 14.0 | 0.0 | 0.00 | 0.00 | 0.00 | 39 | 1021.0 |
| 20260502114101 | 69 | 15 | 14.0 | 0.0 | 0.00 | 0.00 | 0.00 | 39 | 1021.0 |
| 20260502113902 | 69 | 15 | 7.0 | 0.0 | 0.00 | 0.00 | 0.00 | 39 | 1021.1 |
| 20260502113802 | 69 | 20 | 6.0 | 0.0 | 0.00 | 0.00 | 0.00 | 39 | 1021.1 |
| 20260502113702 | 69 | 25 | 13.0 | 0.0 | 0.00 | 0.00 | 0.00 | 41 | 1021.1 |
| 20260502113601 | 69 | 25 | 13.0 | 0.0 | 0.00 | 0.00 | 0.00 | 41 | 1021.1 |
| 20260502113502 | 69 | 20 | 14.0 | 0.0 | 0.00 | 0.00 | 0.00 | 40 | 1021.1 |
| 20260502113401 | 69 | 20 | 14.0 | 0.0 | 0.00 | 0.00 | 0.00 | 40 | 1021.2 |
| 20260502113302 | 69 | 20 | 14.0 | 0.0 | 0.00 | 0.00 | 0.00 | 40 | 1021.2 |
| 20260502113201 | 69 | 17 | 12.0 | 0.0 | 0.00 | 0.00 | 0.00 | 40 | 1021.1 |
| 20260502113102 | 69 | 25 | 6.0 | 0.0 | 0.00 | 0.00 | 0.00 | 41 | 1021.2 |
| 20260502113002 | 70 | 0 | 14.0 | 0.0 | 0.00 | 0.00 | 0.00 | 42 | 1021.2 |
| 20260502112901 | 70 | 0 | 14.0 | 0.0 | 0.00 | 0.00 | 0.00 | 42 | 1021.2 |
| 20260502112802 | 70 | 0 | 14.0 | 0.0 | 0.00 | 0.00 | 0.00 | 42 | 1021.2 |
| 20260502112701 | 70 | 0 | 14.0 | 0.0 | 0.00 | 0.00 | 0.00 | 42 | 1021.2 |
| 20260502112602 | 69 | 352 | 6.0 | 0.0 | 0.00 | 0.00 | 0.00 | 40 | 1021.2 |
| 20260502112501 | 69 | 352 | 6.0 | 0.0 | 0.00 | 0.00 | 0.00 | 40 | 1021.3 |
| 20260502112402 | 69 | 335 | 6.0 | 0.0 | 0.00 | 0.00 | 0.00 | 40 | 1021.3 |
| 20260502112305 | 69 | 335 | 6.0 | 0.0 | 0.00 | 0.00 | 0.00 | 40 | 1021.3 |
| 20260502112202 | 69 | 15 | 6.0 | 0.0 | 0.00 | 0.00 | 0.00 | 42 | 1021.4 |
| 20260502112102 | 69 | 15 | 6.0 | 0.0 | 0.00 | 0.00 | 0.00 | 42 | 1021.3 |
| 20260502112001 | 69 | 15 | 6.0 | 0.0 | 0.00 | 0.00 | 0.00 | 42 | 1021.3 |
| 20260502111902 | 68 | 32 | 6.0 | 0.0 | 0.00 | 0.00 | 0.00 | 42 | 1021.4 |
| 20260502111801 | 68 | 32 | 6.0 | 0.0 | 0.00 | 0.00 | 0.00 | 42 | 1021.4 |
| 20260502111702 | 69 | 45 | 12.0 | 0.0 | 0.00 | 0.00 | 0.00 | 41 | 1021.4 |
| 20260502111601 | 69 | 45 | 12.0 | 0.0 | 0.00 | 0.00 | 0.00 | 41 | 1021.4 |
| 20260502111502 | 69 | 27 | 9.0 | 0.0 | 0.00 | 0.00 | 0.00 | 42 | 1021.4 |
| 20260502111402 | 69 | 27 | 9.0 | 0.0 | 0.00 | 0.00 | 0.00 | 42 | 1021.4 |
| 20260502111302 | 69 | 27 | 9.0 | 0.0 | 0.00 | 0.00 | 0.00 | 42 | 1021.4 |
| 20260502111202 | 69 | 357 | 9.0 | 0.0 | 0.00 | 0.00 | 0.00 | 41 | 1021.5 |
| 20260502111101 | 69 | 357 | 9.0 | 0.0 | 0.00 | 0.00 | 0.00 | 41 | 1021.5 |
| 20260502111002 | 69 | 5 | 13.0 | 0.0 | 0.00 | 0.00 | 0.00 | 41 | 1021.5 |
| 20260502110901 | 68 | 7 | 6.0 | 0.0 | 0.00 | 0.00 | 0.00 | 41 | 1021.5 |
| 20260502110802 | 68 | 12 | 6.0 | 0.0 | 0.00 | 0.00 | 0.00 | 42 | 1021.6 |
| 20260502110701 | 69 | 22 | 9.0 | 0.0 | 0.00 | 0.00 | 0.00 | 42 | 1021.5 |
| 20260502110602 | 68 | 15 | 9.0 | 0.0 | 0.00 | 0.00 | 0.00 | 42 | 1021.6 |
| 20260502110501 | 68 | 15 | 9.0 | 0.0 | 0.00 | 0.00 | 0.00 | 42 | 1021.5 |
| 20260502110402 | 68 | 15 | 9.0 | 0.0 | 0.00 | 0.00 | 0.00 | 42 | 1021.5 |
| 20260502110302 | 68 | 27 | 8.0 | 0.0 | 0.00 | 0.00 | 0.00 | 42 | 1021.5 |
| 20260502110202 | 68 | 27 | 8.0 | 0.0 | 0.00 | 0.00 | 0.00 | 42 | 1021.6 |
| 20260502110001 | 68 | 37 | 14.0 | 0.0 | 0.00 | 0.00 | 0.00 | 43 | 1021.5 |
| 20260502105902 | 68 | 37 | 14.0 | 0.0 | 0.00 | 0.00 | 0.00 | 43 | 1021.5 |
| 20260502105801 | 68 | 37 | 14.0 | 0.0 | 0.00 | 0.00 | 0.00 | 43 | 1021.5 |
| 20260502105702 | 68 | 10 | 10.0 | 0.0 | 0.00 | 0.00 | 0.00 | 43 | 1021.5 |
| 20260502105602 | 68 | 10 | 10.0 | 0.0 | 0.00 | 0.00 | 0.00 | 43 | 1021.5 |
| 20260502105502 | 68 | 7 | 14.0 | 0.0 | 0.00 | 0.00 | 0.00 | 42 | 1021.5 |
| 20260502105402 | 68 | 7 | 14.0 | 0.0 | 0.00 | 0.00 | 0.00 | 42 | 1021.6 |
| 20260502105301 | 68 | 7 | 14.0 | 0.0 | 0.00 | 0.00 | 0.00 | 42 | 1021.6 |
| 20260502105202 | 67 | 15 | 9.0 | 0.0 | 0.00 | 0.00 | 0.00 | 43 | 1021.5 |
| 20260502105101 | 67 | 15 | 9.0 | 0.0 | 0.00 | 0.00 | 0.00 | 43 | 1021.5 |
| 20260502105002 | 67 | 12 | 13.0 | 0.0 | 0.00 | 0.00 | 0.00 | 43 | 1021.6 |
| 20260502104902 | 67 | 12 | 13.0 | 0.0 | 0.00 | 0.00 | 0.00 | 43 | 1021.6 |
| 20260502104802 | 67 | 17 | 13.0 | 0.0 | 0.00 | 0.00 | 0.00 | 43 | 1021.6 |
| 20260502104702 | 67 | 35 | 12.0 | 0.0 | 0.00 | 0.00 | 0.00 | 42 | 1021.6 |
| 20260502104601 | 67 | 35 | 12.0 | 0.0 | 0.00 | 0.00 | 0.00 | 42 | 1021.6 |
| 20260502104502 | 67 | 35 | 12.0 | 0.0 | 0.00 | 0.00 | 0.00 | 42 | 1021.7 |
| 20260502104401 | 67 | 35 | 12.0 | 0.0 | 0.00 | 0.00 | 0.00 | 42 | 1021.7 |
| 20260502104302 | 67 | 35 | 12.0 | 0.0 | 0.00 | 0.00 | 0.00 | 42 | 1021.7 |
| 20260502104201 | 68 | 20 | 9.0 | 0.0 | 0.00 | 0.00 | 0.00 | 43 | 1021.7 |
| 20260502104102 | 68 | 20 | 9.0 | 0.0 | 0.00 | 0.00 | 0.00 | 43 | 1021.7 |
| 20260502104002 | 68 | 20 | 9.0 | 0.0 | 0.00 | 0.00 | 0.00 | 43 | 1021.7 |
| 20260502103902 | 67 | 10 | 13.0 | 0.0 | 0.00 | 0.00 | 0.00 | 44 | 1021.7 |
| 20260502103802 | 67 | 10 | 13.0 | 0.0 | 0.00 | 0.00 | 0.00 | 44 | 1021.8 |
| 20260502103701 | 67 | 17 | 13.0 | 0.0 | 0.00 | 0.00 | 0.00 | 44 | 1021.8 |
| 20260502103602 | 67 | 17 | 13.0 | 0.0 | 0.00 | 0.00 | 0.00 | 44 | 1021.7 |
| 20260502103501 | 67 | 17 | 13.0 | 0.0 | 0.00 | 0.00 | 0.00 | 44 | 1021.7 |
| 20260502103402 | 67 | 17 | 13.0 | 0.0 | 0.00 | 0.00 | 0.00 | 44 | 1021.8 |
| 20260502103302 | 67 | 17 | 13.0 | 0.0 | 0.00 | 0.00 | 0.00 | 44 | 1021.8 |
| 20260502103202 | 67 | 30 | 6.0 | 0.0 | 0.00 | 0.00 | 0.00 | 44 | 1021.8 |
| 20260502103102 | 67 | 32 | 16.0 | 0.0 | 0.00 | 0.00 | 0.00 | 44 | 1021.9 |
| 20260502103001 | 67 | 15 | 14.0 | 0.0 | 0.00 | 0.00 | 0.00 | 43 | 1021.8 |
| 20260502102902 | 67 | 15 | 14.0 | 0.0 | 0.00 | 0.00 | 0.00 | 43 | 1021.9 |
| 20260502102801 | 67 | 15 | 14.0 | 0.0 | 0.00 | 0.00 | 0.00 | 43 | 1021.9 |
| 20260502102702 | 66 | 5 | 8.0 | 0.0 | 0.00 | 0.00 | 0.00 | 43 | 1021.9 |
| 20260502102601 | 66 | 5 | 8.0 | 0.0 | 0.00 | 0.00 | 0.00 | 43 | 1021.9 |
| 20260502102502 | 66 | 2 | 6.0 | 0.0 | 0.00 | 0.00 | 0.00 | 43 | 1021.9 |
| 20260502102402 | 67 | 47 | 14.0 | 0.0 | 0.00 | 0.00 | 0.00 | 45 | 1022.0 |
| 20260502102305 | 67 | 47 | 14.0 | 0.0 | 0.00 | 0.00 | 0.00 | 45 | 1022.0 |
| 20260502102202 | 67 | 47 | 14.0 | 0.0 | 0.00 | 0.00 | 0.00 | 45 | 1022.0 |
| 20260502102101 | 67 | 47 | 14.0 | 0.0 | 0.00 | 0.00 | 0.00 | 45 | 1022.0 |
| 20260502102002 | 67 | 32 | 13.0 | 0.0 | 0.00 | 0.00 | 0.00 | 45 | 1022.0 |
| 20260502101902 | 67 | 32 | 13.0 | 0.0 | 0.00 | 0.00 | 0.00 | 45 | 1021.9 |
| 20260502101802 | 67 | 32 | 13.0 | 0.0 | 0.00 | 0.00 | 0.00 | 45 | 1022.0 |
| 20260502101702 | 67 | 15 | 11.0 | 0.0 | 0.00 | 0.00 | 0.00 | 46 | 1022.0 |
| 20260502101602 | 67 | 15 | 11.0 | 0.0 | 0.00 | 0.00 | 0.00 | 46 | 1022.0 |
| 20260502101502 | 66 | 22 | 9.0 | 0.0 | 0.00 | 0.00 | 0.00 | 43 | 1022.1 |
| 20260502101401 | 66 | 22 | 9.0 | 0.0 | 0.00 | 0.00 | 0.00 | 43 | 1022.1 |
| 20260502101302 | 66 | 25 | 13.0 | 0.0 | 0.00 | 0.00 | 0.00 | 44 | 1022.1 |
| 20260502101201 | 66 | 25 | 13.0 | 0.0 | 0.00 | 0.00 | 0.00 | 44 | 1022.1 |
| 20260502101102 | 66 | 35 | 15.0 | 0.0 | 0.00 | 0.00 | 0.00 | 43 | 1022.1 |
| 20260502101001 | 66 | 35 | 15.0 | 0.0 | 0.00 | 0.00 | 0.00 | 43 | 1022.1 |
| 20260502100902 | 66 | 35 | 15.0 | 0.0 | 0.00 | 0.00 | 0.00 | 43 | 1022.1 |
| 20260502100801 | 66 | 35 | 15.0 | 0.0 | 0.00 | 0.00 | 0.00 | 43 | 1022.1 |
| 20260502100702 | 67 | 30 | 17.0 | 0.0 | 0.00 | 0.00 | 0.00 | 44 | 1022.1 |
| 20260502100602 | 66 | 5 | 14.0 | 0.0 | 0.00 | 0.00 | 0.00 | 45 | 1022.1 |
| 20260502100501 | 66 | 5 | 14.0 | 0.0 | 0.00 | 0.00 | 0.00 | 45 | 1022.1 |
| 20260502100402 | 66 | 5 | 14.0 | 0.0 | 0.00 | 0.00 | 0.00 | 45 | 1022.1 |
| 20260502100301 | 66 | 7 | 9.0 | 0.0 | 0.00 | 0.00 | 0.00 | 47 | 1022.1 |
| 20260502100202 | 66 | 7 | 9.0 | 0.0 | 0.00 | 0.00 | 0.00 | 47 | 1022.2 |
| 20260502091502 | 65 | 50 | 10.0 | 0.0 | 0.00 | 0.00 | 0.00 | 47 | 1022.6 |
| 20260502091402 | 65 | 50 | 10.0 | 0.0 | 0.00 | 0.00 | 0.00 | 47 | 1022.5 |
| 20260502091301 | 65 | 47 | 16.0 | 0.0 | 0.00 | 0.00 | 0.00 | 48 | 1022.6 |
| 20260502091202 | 65 | 47 | 16.0 | 0.0 | 0.00 | 0.00 | 0.00 | 48 | 1022.5 |
| 20260502091101 | 65 | 40 | 14.0 | 0.0 | 0.00 | 0.00 | 0.00 | 48 | 1022.6 |
| 20260502091002 | 65 | 40 | 14.0 | 0.0 | 0.00 | 0.00 | 0.00 | 48 | 1022.6 |
| 20260502090901 | 65 | 40 | 14.0 | 0.0 | 0.00 | 0.00 | 0.00 | 48 | 1022.6 |
| 20260502090802 | 65 | 25 | 11.0 | 0.0 | 0.00 | 0.00 | 0.00 | 48 | 1022.6 |
| 20260502090702 | 64 | 10 | 9.0 | 0.0 | 0.00 | 0.00 | 0.00 | 50 | 1022.6 |
| 20260502090601 | 64 | 10 | 9.0 | 0.0 | 0.00 | 0.00 | 0.00 | 50 | 1022.6 |
| 20260502090503 | 64 | 10 | 9.0 | 0.0 | 0.00 | 0.00 | 0.00 | 50 | 1022.6 |
| 20260502090401 | 64 | 10 | 9.0 | 0.0 | 0.00 | 0.00 | 0.00 | 50 | 1022.6 |
| 20260502090302 | 64 | 10 | 9.0 | 0.0 | 0.00 | 0.00 | 0.00 | 50 | 1022.5 |
| 20260502090201 | 64 | 10 | 9.0 | 0.0 | 0.00 | 0.00 | 0.00 | 50 | 1022.5 |
| 20260502071501 | 61 | 10 | 14.0 | 0.0 | 0.00 | 0.00 | 0.00 | 47 | 1023.1 |
| 20260502071402 | 61 | 10 | 14.0 | 0.0 | 0.00 | 0.00 | 0.00 | 47 | 1023.0 |
| 20260502071302 | 61 | 10 | 14.0 | 0.0 | 0.00 | 0.00 | 0.00 | 47 | 1023.0 |
| 20260502071202 | 61 | 20 | 7.0 | 0.0 | 0.00 | 0.00 | 0.00 | 47 | 1023.1 |
| 20260502071102 | 61 | 17 | 12.0 | 0.0 | 0.00 | 0.00 | 0.00 | 49 | 1023.1 |
| 20260502071001 | 61 | 17 | 12.0 | 0.0 | 0.00 | 0.00 | 0.00 | 49 | 1023.0 |
| 20260502070902 | 61 | 12 | 16.0 | 0.0 | 0.00 | 0.00 | 0.00 | 47 | 1023.0 |
| 20260502070801 | 61 | 12 | 16.0 | 0.0 | 0.00 | 0.00 | 0.00 | 47 | 1023.0 |
| 20260502070702 | 61 | 12 | 14.0 | 0.0 | 0.00 | 0.00 | 0.00 | 49 | 1023.1 |
| 20260502070601 | 61 | 12 | 14.0 | 0.0 | 0.00 | 0.00 | 0.00 | 49 | 1023.1 |
| 20260502070502 | 61 | 12 | 12.0 | 0.0 | 0.00 | 0.00 | 0.00 | 48 | 1023.0 |
| 20260502070402 | 61 | 12 | 12.0 | 0.0 | 0.00 | 0.00 | 0.00 | 48 | 1023.1 |
| 20260502070301 | 61 | 12 | 12.0 | 0.0 | 0.00 | 0.00 | 0.00 | 48 | 1023.1 |
| 20260502070202 | 61 | 12 | 12.0 | 0.0 | 0.00 | 0.00 | 0.00 | 48 | 1023.0 |
| 20260502070002 | 61 | 12 | 12.0 | 0.0 | 0.00 | 0.00 | 0.00 | 48 | 1023.0 |
| 20260502065901 | 61 | 12 | 12.0 | 0.0 | 0.00 | 0.00 | 0.00 | 48 | 1023.0 |
| 20260502065802 | 61 | 15 | 10.0 | 0.0 | 0.00 | 0.00 | 0.00 | 49 | 1023.1 |
| 20260502065702 | 61 | 22 | 13.0 | 0.0 | 0.00 | 0.00 | 0.00 | 48 | 1023.1 |
| 20260502065601 | 61 | 22 | 13.0 | 0.0 | 0.00 | 0.00 | 0.00 | 48 | 1023.1 |
| 20260502065502 | 61 | 22 | 13.0 | 0.0 | 0.00 | 0.00 | 0.00 | 48 | 1023.0 |
| 20260502065401 | 61 | 12 | 12.0 | 0.0 | 0.00 | 0.00 | 0.00 | 48 | 1023.1 |
| 20260502065305 | 61 | 12 | 12.0 | 0.0 | 0.00 | 0.00 | 0.00 | 48 | 1023.1 |
| 20260502065201 | 61 | 12 | 12.0 | 0.0 | 0.00 | 0.00 | 0.00 | 48 | 1023.1 |
| 20260502065102 | 60 | 22 | 14.0 | 0.0 | 0.00 | 0.00 | 0.00 | 48 | 1023.0 |
| 20260502065002 | 60 | 22 | 14.0 | 0.0 | 0.00 | 0.00 | 0.00 | 48 | 1023.1 |
| 20260502064901 | 60 | 22 | 14.0 | 0.0 | 0.00 | 0.00 | 0.00 | 48 | 1023.1 |
| 20260502064802 | 60 | 22 | 14.0 | 0.0 | 0.00 | 0.00 | 0.00 | 48 | 1023.1 |
| 20260502064701 | 60 | 22 | 14.0 | 0.0 | 0.00 | 0.00 | 0.00 | 48 | 1023.1 |
| 20260502064602 | 60 | 17 | 17.0 | 0.0 | 0.00 | 0.00 | 0.00 | 48 | 1023.0 |
| 20260502064501 | 60 | 17 | 17.0 | 0.0 | 0.00 | 0.00 | 0.00 | 48 | 1023.0 |
| 20260502064402 | 60 | 20 | 13.0 | 0.0 | 0.00 | 0.00 | 0.00 | 48 | 1023.2 |
| 20260502064301 | 60 | 20 | 13.0 | 0.0 | 0.00 | 0.00 | 0.00 | 48 | 1023.2 |
| 20260502064202 | 60 | 15 | 10.0 | 0.0 | 0.00 | 0.00 | 0.00 | 48 | 1023.1 |
| 20260502064102 | 60 | 15 | 10.0 | 0.0 | 0.00 | 0.00 | 0.00 | 48 | 1023.1 |
| 20260502064001 | 60 | 15 | 10.0 | 0.0 | 0.00 | 0.00 | 0.00 | 48 | 1023.1 |
| 20260502063902 | 60 | 15 | 10.0 | 0.0 | 0.00 | 0.00 | 0.00 | 48 | 1023.1 |
| 20260502063801 | 60 | 15 | 10.0 | 0.0 | 0.00 | 0.00 | 0.00 | 48 | 1023.1 |
| 20260502063702 | 60 | 15 | 10.0 | 0.0 | 0.00 | 0.00 | 0.00 | 48 | 1023.1 |
| 20260502063601 | 60 | 15 | 10.0 | 0.0 | 0.00 | 0.00 | 0.00 | 48 | 1023.1 |
| 20260502063502 | 60 | 10 | 11.0 | 0.0 | 0.00 | 0.00 | 0.00 | 48 | 1023.1 |
| 20260502063402 | 60 | 10 | 11.0 | 0.0 | 0.00 | 0.00 | 0.00 | 48 | 1023.1 |
| 20260502063302 | 60 | 15 | 21.0 | 0.0 | 0.00 | 0.00 | 0.00 | 49 | 1023.1 |
| 20260502063101 | 60 | 20 | 9.0 | 0.0 | 0.00 | 0.00 | 0.00 | 49 | 1023.1 |
| 20260502063002 | 60 | 20 | 9.0 | 0.0 | 0.00 | 0.00 | 0.00 | 49 | 1023.2 |
| 20260502062901 | 60 | 20 | 9.0 | 0.0 | 0.00 | 0.00 | 0.00 | 49 | 1023.1 |
| 20260502062802 | 60 | 17 | 5.0 | 0.0 | 0.00 | 0.00 | 0.00 | 49 | 1023.1 |
| 20260502062702 | 60 | 12 | 12.0 | 0.0 | 0.00 | 0.00 | 0.00 | 49 | 1023.2 |
| 20260502062601 | 60 | 10 | 12.0 | 0.0 | 0.00 | 0.00 | 0.00 | 50 | 1023.2 |
| 20260502062502 | 60 | 5 | 6.0 | 0.0 | 0.00 | 0.00 | 0.00 | 50 | 1023.1 |
| 20260502062401 | 60 | 10 | 9.0 | 0.0 | 0.00 | 0.00 | 0.00 | 49 | 1023.2 |
| 20260502062305 | 60 | 22 | 10.0 | 0.0 | 0.00 | 0.00 | 0.00 | 50 | 1023.2 |
| 20260502062201 | 60 | 22 | 10.0 | 0.0 | 0.00 | 0.00 | 0.00 | 50 | 1023.2 |
| 20260502062102 | 60 | 22 | 10.0 | 0.0 | 0.00 | 0.00 | 0.00 | 50 | 1023.2 |
| 20260502062002 | 60 | 17 | 10.0 | 0.0 | 0.00 | 0.00 | 0.00 | 51 | 1023.1 |
| 20260502061901 | 60 | 17 | 10.0 | 0.0 | 0.00 | 0.00 | 0.00 | 51 | 1023.2 |
| 20260502061802 | 60 | 20 | 6.0 | 0.0 | 0.00 | 0.00 | 0.00 | 50 | 1023.1 |
| 20260502061701 | 60 | 20 | 6.0 | 0.0 | 0.00 | 0.00 | 0.00 | 50 | 1023.1 |
| 20260502061602 | 60 | 12 | 13.0 | 0.0 | 0.00 | 0.00 | 0.00 | 50 | 1023.2 |
| 20260502061501 | 60 | 12 | 13.0 | 0.0 | 0.00 | 0.00 | 0.00 | 50 | 1023.2 |
| 20260502061402 | 60 | 10 | 8.0 | 0.0 | 0.00 | 0.00 | 0.00 | 49 | 1023.2 |
| 20260502061302 | 60 | 10 | 6.0 | 0.0 | 0.00 | 0.00 | 0.00 | 49 | 1023.2 |
| 20260502061201 | 60 | 10 | 6.0 | 0.0 | 0.00 | 0.00 | 0.00 | 49 | 1023.2 |
| 20260502061102 | 60 | 15 | 13.0 | 0.0 | 0.00 | 0.00 | 0.00 | 50 | 1023.2 |
| 20260502061001 | 60 | 15 | 13.0 | 0.0 | 0.00 | 0.00 | 0.00 | 50 | 1023.2 |
| 20260502060902 | 60 | 15 | 13.0 | 0.0 | 0.00 | 0.00 | 0.00 | 50 | 1023.2 |
| 20260502060801 | 60 | 15 | 13.0 | 0.0 | 0.00 | 0.00 | 0.00 | 50 | 1023.2 |
| 20260502060702 | 59 | 20 | 8.0 | 0.0 | 0.00 | 0.00 | 0.00 | 51 | 1023.2 |
| 20260502060602 | 59 | 20 | 8.0 | 0.0 | 0.00 | 0.00 | 0.00 | 51 | 1023.2 |
| 20260502060502 | 59 | 17 | 9.0 | 0.0 | 0.00 | 0.00 | 0.00 | 50 | 1023.2 |
| 20260502060402 | 59 | 17 | 9.0 | 0.0 | 0.00 | 0.00 | 0.00 | 50 | 1023.2 |
| 20260502060301 | 59 | 17 | 9.0 | 0.0 | 0.00 | 0.00 | 0.00 | 50 | 1023.2 |
| 20260502060202 | 59 | 12 | 7.0 | 0.0 | 0.00 | 0.00 | 0.00 | 49 | 1023.2 |
| 20260502060101 | 59 | 12 | 7.0 | 0.0 | 0.00 | 0.00 | 0.00 | 49 | 1023.3 |
| 20260502060002 | 59 | 10 | 13.0 | 0.0 | 0.00 | 0.00 | 0.00 | 50 | 1023.2 |
| 20260502055901 | 59 | 10 | 13.0 | 0.0 | 0.00 | 0.00 | 0.00 | 50 | 1023.2 |
| 20260502055802 | 59 | 15 | 10.0 | 0.0 | 0.00 | 0.00 | 0.00 | 50 | 1023.3 |
| 20260502055702 | 59 | 15 | 10.0 | 0.0 | 0.00 | 0.00 | 0.00 | 50 | 1023.2 |
| 20260502055601 | 59 | 12 | 10.0 | 0.0 | 0.00 | 0.00 | 0.00 | 50 | 1023.2 |
| 20260502055502 | 59 | 12 | 10.0 | 0.0 | 0.00 | 0.00 | 0.00 | 50 | 1023.3 |
| 20260502055401 | 59 | 12 | 10.0 | 0.0 | 0.00 | 0.00 | 0.00 | 50 | 1023.3 |
| 20260502055305 | 59 | 10 | 6.0 | 0.0 | 0.00 | 0.00 | 0.00 | 50 | 1023.3 |
| 20260502055201 | 59 | 10 | 6.0 | 0.0 | 0.00 | 0.00 | 0.00 | 50 | 1023.3 |
| 20260502055102 | 59 | 10 | 13.0 | 0.0 | 0.00 | 0.00 | 0.00 | 50 | 1023.3 |
| 20260502055001 | 59 | 10 | 13.0 | 0.0 | 0.00 | 0.00 | 0.00 | 50 | 1023.3 |
| 20260502054902 | 59 | 12 | 9.0 | 0.0 | 0.00 | 0.00 | 0.00 | 50 | 1023.3 |
| 20260502054802 | 59 | 12 | 9.0 | 0.0 | 0.00 | 0.00 | 0.00 | 50 | 1023.3 |
| 20260502054701 | 59 | 12 | 9.0 | 0.0 | 0.00 | 0.00 | 0.00 | 50 | 1023.3 |
| 20260502054602 | 59 | 12 | 11.0 | 0.0 | 0.00 | 0.00 | 0.00 | 51 | 1023.3 |
| 20260502054501 | 59 | 12 | 11.0 | 0.0 | 0.00 | 0.00 | 0.00 | 51 | 1023.3 |
| 20260502054402 | 59 | 7 | 6.0 | 0.0 | 0.00 | 0.00 | 0.00 | 51 | 1023.3 |
| 20260502054301 | 59 | 7 | 6.0 | 0.0 | 0.00 | 0.00 | 0.00 | 51 | 1023.3 |
| 20260502054202 | 58 | 12 | 13.0 | 0.0 | 0.00 | 0.00 | 0.00 | 51 | 1023.3 |
| 20260502054102 | 58 | 12 | 6.0 | 0.0 | 0.00 | 0.00 | 0.00 | 50 | 1023.3 |
| 20260502054001 | 58 | 12 | 6.0 | 0.0 | 0.00 | 0.00 | 0.00 | 50 | 1023.3 |
| 20260502053902 | 58 | 12 | 6.0 | 0.0 | 0.00 | 0.00 | 0.00 | 50 | 1023.3 |
| 20260502053801 | 58 | 15 | 8.0 | 0.0 | 0.00 | 0.00 | 0.00 | 51 | 1023.3 |
| 20260502053702 | 58 | 15 | 8.0 | 0.0 | 0.00 | 0.00 | 0.00 | 51 | 1023.3 |
| 20260502053602 | 58 | 7 | 7.0 | 0.0 | 0.00 | 0.00 | 0.00 | 51 | 1023.3 |
| 20260502053501 | 58 | 7 | 7.0 | 0.0 | 0.00 | 0.00 | 0.00 | 51 | 1023.3 |
| 20260502053402 | 58 | 7 | 7.0 | 0.0 | 0.00 | 0.00 | 0.00 | 51 | 1023.3 |
| 20260502053301 | 58 | 7 | 6.0 | 0.0 | 0.00 | 0.00 | 0.00 | 51 | 1023.3 |
| 20260502053202 | 58 | 7 | 6.0 | 0.0 | 0.00 | 0.00 | 0.00 | 51 | 1023.3 |
| 20260502053101 | 58 | 10 | 10.0 | 0.0 | 0.00 | 0.00 | 0.00 | 51 | 1023.3 |
| 20260502053002 | 58 | 12 | 11.0 | 0.0 | 0.00 | 0.00 | 0.00 | 51 | 1023.3 |
| 20260502052902 | 58 | 12 | 11.0 | 0.0 | 0.00 | 0.00 | 0.00 | 51 | 1023.3 |
| 20260502052801 | 58 | 12 | 11.0 | 0.0 | 0.00 | 0.00 | 0.00 | 51 | 1023.3 |
| 20260502052702 | 58 | 17 | 10.0 | 0.0 | 0.00 | 0.00 | 0.00 | 52 | 1023.3 |
| 20260502052601 | 58 | 17 | 10.0 | 0.0 | 0.00 | 0.00 | 0.00 | 52 | 1023.3 |
| 20260502052502 | 58 | 17 | 10.0 | 0.0 | 0.00 | 0.00 | 0.00 | 52 | 1023.3 |
| 20260502052401 | 58 | 17 | 10.0 | 0.0 | 0.00 | 0.00 | 0.00 | 52 | 1023.3 |
| 20260502052305 | 58 | 17 | 6.0 | 0.0 | 0.00 | 0.00 | 0.00 | 52 | 1023.3 |
| 20260502052202 | 58 | 17 | 6.0 | 0.0 | 0.00 | 0.00 | 0.00 | 52 | 1023.3 |
| 20260502052101 | 58 | 17 | 6.0 | 0.0 | 0.00 | 0.00 | 0.00 | 52 | 1023.3 |
| 20260502052002 | 57 | 15 | 7.0 | 0.0 | 0.00 | 0.00 | 0.00 | 52 | 1023.3 |
| 20260502051901 | 57 | 15 | 7.0 | 0.0 | 0.00 | 0.00 | 0.00 | 52 | 1023.3 |
| 20260502051802 | 57 | 15 | 7.0 | 0.0 | 0.00 | 0.00 | 0.00 | 52 | 1023.3 |
| 20260502051701 | 57 | 17 | 12.0 | 0.0 | 0.00 | 0.00 | 0.00 | 52 | 1023.3 |
| 20260502051602 | 57 | 17 | 12.0 | 0.0 | 0.00 | 0.00 | 0.00 | 52 | 1023.3 |
| 20260502051501 | 57 | 10 | 7.0 | 0.0 | 0.00 | 0.00 | 0.00 | 52 | 1023.3 |
| 20260502051401 | 57 | 10 | 7.0 | 0.0 | 0.00 | 0.00 | 0.00 | 52 | 1023.3 |
| 20260502051302 | 57 | 12 | 7.0 | 0.0 | 0.00 | 0.00 | 0.00 | 52 | 1023.3 |
| 20260502051201 | 57 | 12 | 7.0 | 0.0 | 0.00 | 0.00 | 0.00 | 52 | 1023.3 |
| 20260502051103 | 57 | 12 | 7.0 | 0.0 | 0.00 | 0.00 | 0.00 | 52 | 1023.3 |
| 20260502051002 | 57 | 7 | 8.0 | 0.0 | 0.00 | 0.00 | 0.00 | 52 | 1023.3 |
| 20260502050902 | 57 | 7 | 8.0 | 0.0 | 0.00 | 0.00 | 0.00 | 52 | 1023.3 |
| 20260502050802 | 57 | 7 | 8.0 | 0.0 | 0.00 | 0.00 | 0.00 | 52 | 1023.3 |
| 20260502050702 | 57 | 7 | 8.0 | 0.0 | 0.00 | 0.00 | 0.00 | 52 | 1023.3 |
| 20260502050602 | 57 | 7 | 8.0 | 0.0 | 0.00 | 0.00 | 0.00 | 52 | 1023.3 |
| 20260502050501 | 57 | 7 | 8.0 | 0.0 | 0.00 | 0.00 | 0.00 | 52 | 1023.3 |
| 20260502050402 | 57 | 2 | 8.0 | 0.0 | 0.00 | 0.00 | 0.00 | 52 | 1023.2 |
| 20260502050301 | 57 | 2 | 8.0 | 0.0 | 0.00 | 0.00 | 0.00 | 52 | 1023.3 |
| 20260502050202 | 57 | 10 | 6.0 | 0.0 | 0.00 | 0.00 | 0.00 | 52 | 1023.3 |
| 20260502050002 | 57 | 5 | 7.0 | 0.0 | 0.00 | 0.00 | 0.00 | 52 | 1023.3 |
| 20260502045902 | 57 | 5 | 7.0 | 0.0 | 0.00 | 0.00 | 0.00 | 52 | 1023.3 |
| 20260502045801 | 57 | 5 | 7.0 | 0.0 | 0.00 | 0.00 | 0.00 | 52 | 1023.3 |
| 20260502045702 | 57 | 2 | 6.0 | 0.0 | 0.00 | 0.00 | 0.00 | 52 | 1023.4 |
| 20260502045601 | 57 | 2 | 6.0 | 0.0 | 0.00 | 0.00 | 0.00 | 52 | 1023.4 |
| 20260502045502 | 56 | 10 | 8.0 | 0.0 | 0.00 | 0.00 | 0.00 | 53 | 1023.3 |
| 20260502045401 | 56 | 10 | 8.0 | 0.0 | 0.00 | 0.00 | 0.00 | 53 | 1023.3 |
| 20260502045305 | 56 | 10 | 7.0 | 0.0 | 0.00 | 0.00 | 0.00 | 53 | 1023.3 |
| 20260502045201 | 56 | 10 | 7.0 | 0.0 | 0.00 | 0.00 | 0.00 | 53 | 1023.3 |
| 20260502045102 | 56 | 10 | 7.0 | 0.0 | 0.00 | 0.00 | 0.00 | 53 | 1023.3 |
| 20260502045002 | 56 | 10 | 7.0 | 0.0 | 0.00 | 0.00 | 0.00 | 53 | 1023.3 |
| 20260502044901 | 56 | 10 | 7.0 | 0.0 | 0.00 | 0.00 | 0.00 | 53 | 1023.3 |
| 20260502044802 | 56 | 2 | 5.0 | 0.0 | 0.00 | 0.00 | 0.00 | 52 | 1023.4 |
| 20260502044701 | 56 | 2 | 5.0 | 0.0 | 0.00 | 0.00 | 0.00 | 52 | 1023.4 |
| 20260502044602 | 56 | 2 | 5.0 | 0.0 | 0.00 | 0.00 | 0.00 | 52 | 1023.3 |
| 20260502044501 | 56 | 2 | 5.0 | 0.0 | 0.00 | 0.00 | 0.00 | 52 | 1023.3 |
| 20260502044402 | 56 | 357 | 6.0 | 0.0 | 0.00 | 0.00 | 0.00 | 52 | 1023.3 |
| 20260502044301 | 56 | 357 | 6.0 | 0.0 | 0.00 | 0.00 | 0.00 | 52 | 1023.3 |
| 20260502044202 | 56 | 357 | 6.0 | 0.0 | 0.00 | 0.00 | 0.00 | 52 | 1023.3 |
| 20260502044102 | 56 | 357 | 5.0 | 0.0 | 0.00 | 0.00 | 0.00 | 53 | 1023.3 |
| 20260502044001 | 56 | 357 | 5.0 | 0.0 | 0.00 | 0.00 | 0.00 | 53 | 1023.3 |
| 20260502043902 | 56 | 357 | 4.0 | 0.0 | 0.00 | 0.00 | 0.00 | 53 | 1023.3 |
| 20260502043801 | 56 | 357 | 4.0 | 0.0 | 0.00 | 0.00 | 0.00 | 53 | 1023.3 |
| 20260502043702 | 56 | 357 | 4.0 | 0.0 | 0.00 | 0.00 | 0.00 | 53 | 1023.3 |
| 20260502043601 | 56 | 2 | 5.0 | 0.0 | 0.00 | 0.00 | 0.00 | 52 | 1023.3 |
| 20260502043502 | 56 | 2 | 5.0 | 0.0 | 0.00 | 0.00 | 0.00 | 52 | 1023.3 |
| 20260502043402 | 56 | 347 | 6.0 | 0.0 | 0.00 | 0.00 | 0.00 | 53 | 1023.3 |
| 20260502043302 | 56 | 347 | 6.0 | 0.0 | 0.00 | 0.00 | 0.00 | 53 | 1023.3 |
| 20260502043202 | 56 | 347 | 6.0 | 0.0 | 0.00 | 0.00 | 0.00 | 53 | 1023.3 |
| 20260502043101 | 56 | 355 | 5.0 | 0.0 | 0.00 | 0.00 | 0.00 | 53 | 1023.3 |
| 20260502043002 | 56 | 355 | 5.0 | 0.0 | 0.00 | 0.00 | 0.00 | 53 | 1023.4 |
| 20260502042901 | 56 | 357 | 4.0 | 0.0 | 0.00 | 0.00 | 0.00 | 53 | 1023.4 |
| 20260502042802 | 56 | 357 | 4.0 | 0.0 | 0.00 | 0.00 | 0.00 | 53 | 1023.3 |
| 20260502042702 | 56 | 357 | 4.0 | 0.0 | 0.00 | 0.00 | 0.00 | 53 | 1023.3 |
| 20260502042602 | 56 | 2 | 4.0 | 0.0 | 0.00 | 0.00 | 0.00 | 53 | 1023.3 |
| 20260502042502 | 56 | 2 | 4.0 | 0.0 | 0.00 | 0.00 | 0.00 | 53 | 1023.4 |
| 20260502042401 | 56 | 2 | 4.0 | 0.0 | 0.00 | 0.00 | 0.00 | 53 | 1023.4 |
| 20260502042305 | 56 | 2 | 4.0 | 0.0 | 0.00 | 0.00 | 0.00 | 53 | 1023.4 |
| 20260502042201 | 56 | 2 | 4.0 | 0.0 | 0.00 | 0.00 | 0.00 | 53 | 1023.4 |
| 20260502042102 | 56 | 2 | 4.0 | 0.0 | 0.00 | 0.00 | 0.00 | 53 | 1023.4 |
| 20260502042002 | 56 | 2 | 4.0 | 0.0 | 0.00 | 0.00 | 0.00 | 53 | 1023.4 |
| 20260502041902 | 55 | 7 | 6.0 | 0.0 | 0.00 | 0.00 | 0.00 | 53 | 1023.4 |
| 20260502041801 | 55 | 7 | 6.0 | 0.0 | 0.00 | 0.00 | 0.00 | 53 | 1023.4 |
| 20260502041702 | 55 | 7 | 6.0 | 0.0 | 0.00 | 0.00 | 0.00 | 53 | 1023.3 |
| 20260502041602 | 55 | 7 | 6.0 | 0.0 | 0.00 | 0.00 | 0.00 | 53 | 1023.3 |
| 20260502041501 | 55 | 7 | 6.0 | 0.0 | 0.00 | 0.00 | 0.00 | 53 | 1023.4 |
| 20260502041402 | 55 | 7 | 6.0 | 0.0 | 0.00 | 0.00 | 0.00 | 53 | 1023.3 |
| 20260502041301 | 55 | 7 | 6.0 | 0.0 | 0.00 | 0.00 | 0.00 | 53 | 1023.4 |
| 20260502041202 | 55 | 7 | 6.0 | 0.0 | 0.00 | 0.00 | 0.00 | 53 | 1023.3 |
| 20260502041101 | 55 | 350 | 6.0 | 0.0 | 0.00 | 0.00 | 0.00 | 53 | 1023.3 |
| 20260502041002 | 55 | 350 | 6.0 | 0.0 | 0.00 | 0.00 | 0.00 | 53 | 1023.4 |
| 20260502040901 | 55 | 350 | 6.0 | 0.0 | 0.00 | 0.00 | 0.00 | 53 | 1023.3 |
| 20260502040802 | 55 | 355 | 5.0 | 0.0 | 0.00 | 0.00 | 0.00 | 53 | 1023.4 |
| 20260502040601 | 55 | 2 | 5.0 | 0.0 | 0.00 | 0.00 | 0.00 | 53 | 1023.4 |
| 20260502040502 | 55 | 2 | 5.0 | 0.0 | 0.00 | 0.00 | 0.00 | 53 | 1023.4 |
| 20260502040401 | 56 | 357 | 6.0 | 0.0 | 0.00 | 0.00 | 0.00 | 53 | 1023.4 |
| 20260502040302 | 56 | 357 | 6.0 | 0.0 | 0.00 | 0.00 | 0.00 | 53 | 1023.4 |
| 20260502040202 | 56 | 357 | 6.0 | 0.0 | 0.00 | 0.00 | 0.00 | 53 | 1023.4 |
| 20260502040002 | 56 | 350 | 6.0 | 0.0 | 0.00 | 0.00 | 0.00 | 53 | 1023.5 |
| 20260502035901 | 56 | 350 | 6.0 | 0.0 | 0.00 | 0.00 | 0.00 | 53 | 1023.4 |
| 20260502035701 | 55 | 350 | 6.0 | 0.0 | 0.00 | 0.00 | 0.00 | 53 | 1023.5 |
| 20260502035602 | 55 | 352 | 4.0 | 0.0 | 0.00 | 0.00 | 0.00 | 53 | 1023.5 |
| 20260502035502 | 55 | 340 | 4.0 | 0.0 | 0.00 | 0.00 | 0.00 | 53 | 1023.5 |
| 20260502035401 | 55 | 340 | 4.0 | 0.0 | 0.00 | 0.00 | 0.00 | 53 | 1023.5 |
| 20260502035302 | 55 | 340 | 4.0 | 0.0 | 0.00 | 0.00 | 0.00 | 53 | 1023.5 |
| 20260502035201 | 55 | 340 | 4.0 | 0.0 | 0.00 | 0.00 | 0.00 | 53 | 1023.4 |
| 20260502035102 | 55 | 355 | 4.0 | 0.0 | 0.00 | 0.00 | 0.00 | 53 | 1023.4 |
| 20260502035002 | 55 | 355 | 4.0 | 0.0 | 0.00 | 0.00 | 0.00 | 53 | 1023.4 |
| 20260502034902 | 55 | 342 | 4.0 | 0.0 | 0.00 | 0.00 | 0.00 | 53 | 1023.5 |
| 20260502034802 | 55 | 342 | 4.0 | 0.0 | 0.00 | 0.00 | 0.00 | 53 | 1023.5 |
| 20260502034701 | 55 | 342 | 4.0 | 0.0 | 0.00 | 0.00 | 0.00 | 53 | 1023.5 |
| 20260502034602 | 55 | 0 | 3.0 | 0.0 | 0.00 | 0.00 | 0.00 | 53 | 1023.5 |
| 20260502034501 | 55 | 0 | 3.0 | 0.0 | 0.00 | 0.00 | 0.00 | 53 | 1023.5 |
| 20260502034402 | 55 | 0 | 3.0 | 0.0 | 0.00 | 0.00 | 0.00 | 53 | 1023.5 |
| 20260502034301 | 55 | 2 | 5.0 | 0.0 | 0.00 | 0.00 | 0.00 | 53 | 1023.5 |
| 20260502034202 | 55 | 2 | 5.0 | 0.0 | 0.00 | 0.00 | 0.00 | 53 | 1023.5 |
| 20260502034102 | 55 | 357 | 6.0 | 0.0 | 0.00 | 0.00 | 0.00 | 53 | 1023.5 |
| 20260502034001 | 55 | 357 | 6.0 | 0.0 | 0.00 | 0.00 | 0.00 | 53 | 1023.5 |
| 20260502033902 | 55 | 357 | 6.0 | 0.0 | 0.00 | 0.00 | 0.00 | 53 | 1023.5 |
| 20260502033801 | 55 | 0 | 3.0 | 0.0 | 0.00 | 0.00 | 0.00 | 53 | 1023.5 |
| 20260502033702 | 55 | 0 | 3.0 | 0.0 | 0.00 | 0.00 | 0.00 | 53 | 1023.5 |
| 20260502033601 | 55 | 0 | 3.0 | 0.0 | 0.00 | 0.00 | 0.00 | 53 | 1023.5 |
| 20260502033502 | 56 | 7 | 4.0 | 0.0 | 0.00 | 0.00 | 0.00 | 53 | 1023.5 |
| 20260502033402 | 56 | 7 | 4.0 | 0.0 | 0.00 | 0.00 | 0.00 | 53 | 1023.5 |